Time,TemperatureF,DewpointF,PressureIn,WindDirection,WindDirectionDegrees,WindSpeedMPH,WindSpeedGustMPH,Humidity,HourlyPrecipIn,Conditions,Clouds,dailyrainin,SoftwareType,DateUTC
2013-06-24 00:00:00,52.0,45.4,29.74,SE,141,0.0,0.0,78,0.00,,---,0.00,VWS V14.01,2013-06-24 08:00:00,
2013-06-24 00:02:00,51.7,45.1,29.74,SE,141,0.0,0.0,78,0.00,,---,0.00,VWS V14.01,2013-06-24 08:02:00,
2013-06-24 00:04:00,51.6,45.0,29.74,SE,141,0.0,0.0,78,0.00,,---,0.00,VWS V14.01,2013-06-24 08:04:00,
2013-06-24 00:05:00,51.5,44.9,29.74,SE,141,0.0,0.0,78,0.00,,---,0.00,VWS V14.01,2013-06-24 08:05:00,
2013-06-24 00:08:00,51.3,45.3,29.74,SE,141,0.0,0.0,80,0.00,,---,0.00,VWS V14.01,2013-06-24 08:08:00,
2013-06-24 00:09:00,51.0,45.1,29.74,SE,141,0.0,0.0,80,0.00,,---,0.00,VWS V14.01,2013-06-24 08:09:00,
2013-06-24 00:10:00,51.0,45.1,29.74,SE,141,0.0,0.0,80,0.00,,---,0.00,VWS V14.01,2013-06-24 08:10:00,
2013-06-24 00:11:00,50.8,44.9,29.74,SE,141,0.0,0.0,80,0.00,,---,0.00,VWS V14.01,2013-06-24 08:11:00,
2013-06-24 00:14:00,50.5,44.9,29.74,SE,141,0.0,0.0,81,0.00,,---,0.00,VWS V14.01,2013-06-24 08:14:00,
2013-06-24 00:15:00,50.5,44.9,29.74,SE,141,0.0,0.0,81,0.00,,---,0.00,VWS V14.01,2013-06-24 08:15:00,
2013-06-24 00:17:00,50.3,45.0,29.74,SE,141,0.0,0.0,82,0.00,,---,0.00,VWS V14.01,2013-06-24 08:17:00,
2013-06-24 00:19:00,50.3,45.0,29.74,SE,141,0.0,0.0,82,0.00,,---,0.00,VWS V14.01,2013-06-24 08:19:00,
2013-06-24 00:20:00,50.2,44.9,29.74,SE,141,0.0,0.0,82,0.00,,---,0.00,VWS V14.01,2013-06-24 08:20:00,
2013-06-24 00:22:00,50.0,44.7,29.74,SE,141,0.0,0.0,82,0.00,,---,0.00,VWS V14.01,2013-06-24 08:22:00,
2013-06-24 00:24:00,50.0,45.0,29.74,SE,141,0.0,0.0,83,0.00,,---,0.00,VWS V14.01,2013-06-24 08:24:00,
2013-06-24 00:25:00,49.9,45.0,29.74,SE,141,0.0,0.0,83,0.00,,---,0.00,VWS V14.01,2013-06-24 08:25:00,
2013-06-24 00:28:00,49.8,44.8,29.74,SE,141,0.0,0.0,83,0.00,,---,0.00,VWS V14.01,2013-06-24 08:28:00,
2013-06-24 00:30:00,49.7,44.8,29.74,SE,141,0.0,0.0,83,0.00,,---,0.00,VWS V14.01,2013-06-24 08:30:00,
2013-06-24 00:31:00,49.6,44.7,29.74,SE,141,0.0,0.0,83,0.00,,---,0.00,VWS V14.01,2013-06-24 08:31:00,
2013-06-24 00:33:00,49.5,44.6,29.74,SE,141,0.0,0.0,83,0.00,,---,0.00,VWS V14.01,2013-06-24 08:33:00,
2013-06-24 00:35:00,49.4,44.5,29.74,SE,141,0.0,0.0,83,0.00,,---,0.00,VWS V14.01,2013-06-24 08:35:00,
2013-06-24 00:36:00,49.3,44.4,29.74,SE,141,0.0,0.0,83,0.00,,---,0.00,VWS V14.01,2013-06-24 08:36:00,
2013-06-24 00:39:00,49.0,44.1,29.74,SE,141,0.0,0.0,83,0.00,,---,0.00,VWS V14.01,2013-06-24 08:39:00,
2013-06-24 00:40:00,48.8,43.9,29.74,SE,141,0.0,0.0,83,0.00,,---,0.00,VWS V14.01,2013-06-24 08:40:00,
2013-06-24 00:43:00,48.6,44.0,29.74,SE,141,0.0,0.0,84,0.00,,---,0.00,VWS V14.01,2013-06-24 08:43:00,
2013-06-24 00:44:00,48.5,43.9,29.74,SE,141,0.0,0.0,84,0.00,,---,0.00,VWS V14.01,2013-06-24 08:44:00,
2013-06-24 00:45:00,48.7,43.8,29.74,SE,141,0.0,0.0,83,0.00,,---,0.00,VWS V14.01,2013-06-24 08:45:00,
2013-06-24 00:46:00,48.3,43.4,29.74,SE,141,0.0,0.0,83,0.00,,---,0.00,VWS V14.01,2013-06-24 08:46:00,
2013-06-24 00:48:00,48.2,43.6,29.74,SE,141,0.0,0.0,84,0.00,,---,0.00,VWS V14.01,2013-06-24 08:48:00,
2013-06-24 00:49:00,48.1,43.5,29.74,SE,141,0.0,0.0,84,0.00,,---,0.00,VWS V14.01,2013-06-24 08:49:00,
2013-06-24 00:50:00,48.3,43.4,29.74,SE,141,0.0,0.0,83,0.00,,---,0.00,VWS V14.01,2013-06-24 08:50:00,
2013-06-24 00:51:00,48.0,43.4,29.74,SE,141,0.0,0.0,84,0.00,,---,0.00,VWS V14.01,2013-06-24 08:51:00,
2013-06-24 00:53:00,47.9,43.6,29.74,SE,141,0.0,0.0,85,0.00,,---,0.00,VWS V14.01,2013-06-24 08:53:00,
2013-06-24 00:54:00,47.8,43.5,29.74,SE,141,0.0,0.0,85,0.00,,---,0.00,VWS V14.01,2013-06-24 08:54:00,
2013-06-24 00:55:00,48.0,43.4,29.74,SE,141,0.0,0.0,84,0.00,,---,0.00,VWS V14.01,2013-06-24 08:55:00,
2013-06-24 00:56:00,47.8,43.5,29.74,SE,141,0.0,0.0,85,0.00,,---,0.00,VWS V14.01,2013-06-24 08:56:00,
2013-06-24 00:58:00,47.7,43.7,29.74,SE,141,0.0,0.0,86,0.00,,---,0.00,VWS V14.01,2013-06-24 08:58:00,
2013-06-24 01:00:00,47.5,43.5,29.74,SE,141,0.0,0.0,86,0.00,,---,0.00,VWS V14.01,2013-06-24 09:00:00,
2013-06-24 01:02:00,47.4,43.4,29.74,SE,141,0.0,0.0,86,0.00,,---,0.00,VWS V14.01,2013-06-24 09:02:00,
2013-06-24 01:05:00,47.2,43.2,29.74,SE,141,0.0,0.0,86,0.00,,---,0.00,VWS V14.01,2013-06-24 09:05:00,
2013-06-24 01:06:00,47.1,43.1,29.74,SE,141,0.0,0.0,86,0.00,,---,0.00,VWS V14.01,2013-06-24 09:06:00,
2013-06-24 01:07:00,47.1,43.4,29.74,SE,141,0.0,0.0,87,0.00,,---,0.00,VWS V14.01,2013-06-24 09:07:00,
2013-06-24 01:08:00,47.0,43.3,29.74,SE,141,0.0,0.0,87,0.00,,---,0.00,VWS V14.01,2013-06-24 09:08:00,
2013-06-24 01:10:00,46.9,43.2,29.74,SE,141,0.0,0.0,87,0.00,,---,0.00,VWS V14.01,2013-06-24 09:10:00,
2013-06-24 01:11:00,46.9,43.2,29.74,SE,141,0.0,0.0,87,0.00,,---,0.00,VWS V14.01,2013-06-24 09:11:00,
2013-06-24 01:13:00,46.8,43.4,29.75,SE,141,0.0,0.0,88,0.00,,---,0.00,VWS V14.01,2013-06-24 09:13:00,
2013-06-24 01:15:00,46.7,43.3,29.75,SE,141,0.0,0.0,88,0.00,,---,0.00,VWS V14.01,2013-06-24 09:15:00,
2013-06-24 01:18:00,46.7,43.6,29.75,SE,141,0.0,0.0,89,0.00,,---,0.00,VWS V14.01,2013-06-24 09:18:00,
2013-06-24 01:20:00,46.7,43.3,29.75,SE,141,0.0,0.0,88,0.00,,---,0.00,VWS V14.01,2013-06-24 09:20:00,
2013-06-24 01:21:00,46.5,43.4,29.74,SE,141,0.0,0.0,89,0.00,,---,0.00,VWS V14.01,2013-06-24 09:21:00,
2013-06-24 01:23:00,46.5,43.4,29.74,SE,141,0.0,0.0,89,0.00,,---,0.00,VWS V14.01,2013-06-24 09:23:00,
2013-06-24 01:24:00,46.4,43.3,29.74,SE,141,0.0,0.0,89,0.00,,---,0.00,VWS V14.01,2013-06-24 09:24:00,
2013-06-24 01:25:00,46.5,43.4,29.74,SE,141,0.0,0.0,89,0.00,,---,0.00,VWS V14.01,2013-06-24 09:25:00,
2013-06-24 01:27:00,46.3,43.5,29.74,SE,141,0.0,0.0,90,0.00,,---,0.00,VWS V14.01,2013-06-24 09:27:00,
2013-06-24 01:28:00,46.3,43.5,29.74,SE,141,0.0,0.0,90,0.00,,---,0.00,VWS V14.01,2013-06-24 09:28:00,
2013-06-24 01:29:00,46.3,43.5,29.75,SE,141,0.0,0.0,90,0.00,,---,0.00,VWS V14.01,2013-06-24 09:29:00,
2013-06-24 01:30:00,46.4,43.3,29.74,SE,141,0.0,0.0,89,0.00,,---,0.00,VWS V14.01,2013-06-24 09:30:00,
2013-06-24 01:33:00,46.3,43.5,29.75,SE,141,0.0,0.0,90,0.00,,---,0.00,VWS V14.01,2013-06-24 09:33:00,
2013-06-24 01:34:00,46.2,43.4,29.75,SE,141,1.0,2.0,90,0.00,,---,0.00,VWS V14.01,2013-06-24 09:34:00,
2013-06-24 01:35:00,46.2,43.4,29.75,SE,141,0.0,2.0,90,0.00,,---,0.00,VWS V14.01,2013-06-24 09:35:00,
2013-06-24 01:39:00,46.1,43.6,29.75,SE,141,0.0,1.0,91,0.00,,---,0.00,VWS V14.01,2013-06-24 09:39:00,
2013-06-24 01:40:00,46.1,43.6,29.75,SE,141,0.0,1.0,91,0.00,,---,0.00,VWS V14.01,2013-06-24 09:40:00,
2013-06-24 01:44:00,46.1,43.6,29.75,SE,141,0.0,1.0,91,0.00,,---,0.00,VWS V14.01,2013-06-24 09:44:00,
2013-06-24 01:45:00,46.1,43.6,29.75,SE,141,0.0,1.0,91,0.00,,---,0.00,VWS V14.01,2013-06-24 09:45:00,
2013-06-24 01:49:00,46.3,44.1,29.75,SE,141,0.0,0.0,92,0.00,,---,0.00,VWS V14.01,2013-06-24 09:49:00,
2013-06-24 01:50:00,46.3,44.1,29.75,SE,141,0.0,0.0,92,0.00,,---,0.00,VWS V14.01,2013-06-24 09:50:00,
2013-06-24 01:51:00,46.3,44.1,29.75,SE,141,0.0,0.0,92,0.00,,---,0.00,VWS V14.01,2013-06-24 09:51:00,
2013-06-24 01:54:00,46.3,44.1,29.75,SE,141,0.0,0.0,92,0.00,,---,0.00,VWS V14.01,2013-06-24 09:54:00,
2013-06-24 01:55:00,46.3,44.1,29.75,SE,141,0.0,0.0,92,0.00,,---,0.00,VWS V14.01,2013-06-24 09:55:00,
2013-06-24 01:56:00,46.3,44.1,29.75,SE,141,0.0,0.0,92,0.00,,---,0.00,VWS V14.01,2013-06-24 09:56:00,
2013-06-24 01:59:00,46.3,44.1,29.75,SE,141,0.0,0.0,92,0.00,,---,0.00,VWS V14.01,2013-06-24 09:59:00,
2013-06-24 02:00:00,46.2,44.0,29.75,SE,141,0.0,0.0,92,0.00,,---,0.00,VWS V14.01,2013-06-24 10:00:00,
2013-06-24 02:01:00,46.2,44.0,29.75,SE,141,0.0,0.0,92,0.00,,---,0.00,VWS V14.01,2013-06-24 10:01:00,
2013-06-24 02:02:00,46.2,44.0,29.75,SE,141,0.0,0.0,92,0.00,,---,0.00,VWS V14.01,2013-06-24 10:02:00,
2013-06-24 02:05:00,46.1,43.9,29.75,SE,141,0.0,0.0,92,0.00,,---,0.00,VWS V14.01,2013-06-24 10:05:00,
2013-06-24 02:06:00,46.2,44.0,29.75,SE,141,0.0,0.0,92,0.00,,---,0.00,VWS V14.01,2013-06-24 10:06:00,
2013-06-24 02:07:00,46.1,43.9,29.75,SE,141,0.0,0.0,92,0.00,,---,0.00,VWS V14.01,2013-06-24 10:07:00,
2013-06-24 02:10:00,46.1,43.9,29.75,SE,141,0.0,0.0,92,0.00,,---,0.00,VWS V14.01,2013-06-24 10:10:00,
2013-06-24 02:11:00,46.1,43.9,29.75,SE,141,0.0,0.0,92,0.00,,---,0.00,VWS V14.01,2013-06-24 10:11:00,
2013-06-24 02:12:00,46.1,43.9,29.75,SE,141,0.0,0.0,92,0.00,,---,0.00,VWS V14.01,2013-06-24 10:12:00,
2013-06-24 02:14:00,46.1,43.9,29.75,SE,141,0.0,0.0,92,0.00,,---,0.00,VWS V14.01,2013-06-24 10:14:00,
2013-06-24 02:15:00,46.0,43.5,29.75,SE,141,0.0,0.0,91,0.00,,---,0.00,VWS V14.01,2013-06-24 10:15:00,
2013-06-24 02:17:00,45.9,43.4,29.75,SE,141,0.0,0.0,91,0.00,,---,0.00,VWS V14.01,2013-06-24 10:17:00,
2013-06-24 02:19:00,45.8,43.3,29.75,SE,141,0.0,0.0,91,0.00,,---,0.00,VWS V14.01,2013-06-24 10:19:00,
2013-06-24 02:20:00,45.7,43.5,29.75,SE,141,0.0,1.0,92,0.00,,---,0.00,VWS V14.01,2013-06-24 10:20:00,
2013-06-24 02:22:00,45.7,43.5,29.75,SE,141,0.0,1.0,92,0.00,,---,0.00,VWS V14.01,2013-06-24 10:22:00,
2013-06-24 02:24:00,45.6,43.4,29.75,SE,141,0.0,1.0,92,0.00,,---,0.00,VWS V14.01,2013-06-24 10:24:00,
2013-06-24 02:25:00,45.7,43.5,29.75,SE,141,0.0,1.0,92,0.00,,---,0.00,VWS V14.01,2013-06-24 10:25:00,
2013-06-24 02:26:00,45.6,43.4,29.75,SW,223,0.0,1.0,92,0.00,,---,0.00,VWS V14.01,2013-06-24 10:26:00,
2013-06-24 02:27:00,45.6,43.4,29.75,SW,226,0.0,1.0,92,0.00,,---,0.00,VWS V14.01,2013-06-24 10:27:00,
2013-06-24 02:29:00,45.6,43.4,29.75,SW,226,0.0,2.0,92,0.00,,---,0.00,VWS V14.01,2013-06-24 10:29:00,
2013-06-24 02:30:00,45.6,43.4,29.75,SW,223,0.0,1.0,92,0.00,,---,0.00,VWS V14.01,2013-06-24 10:30:00,
2013-06-24 02:31:00,45.6,43.7,29.75,SW,226,0.0,0.0,93,0.00,,---,0.00,VWS V14.01,2013-06-24 10:31:00,
2013-06-24 02:32:00,45.6,43.7,29.75,SW,226,0.0,0.0,93,0.00,,---,0.00,VWS V14.01,2013-06-24 10:32:00,
2013-06-24 02:33:00,45.6,43.7,29.75,SW,226,0.0,0.0,93,0.00,,---,0.00,VWS V14.01,2013-06-24 10:33:00,
2013-06-24 02:34:00,45.6,43.7,29.75,SW,226,0.0,0.0,93,0.00,,---,0.00,VWS V14.01,2013-06-24 10:34:00,
2013-06-24 02:35:00,45.6,43.7,29.75,SW,226,0.0,2.0,93,0.00,,---,0.00,VWS V14.01,2013-06-24 10:35:00,
2013-06-24 02:36:00,45.6,43.7,29.75,SW,226,0.0,0.0,93,0.00,,---,0.00,VWS V14.01,2013-06-24 10:36:00,
2013-06-24 02:37:00,45.6,43.7,29.75,SW,226,0.0,0.0,93,0.00,,---,0.00,VWS V14.01,2013-06-24 10:37:00,
2013-06-24 02:38:00,45.7,43.8,29.75,SW,226,0.0,0.0,93,0.00,,---,0.00,VWS V14.01,2013-06-24 10:38:00,
2013-06-24 02:40:00,45.7,44.1,29.75,SW,226,0.0,0.0,94,0.00,,---,0.00,VWS V14.01,2013-06-24 10:40:00,
2013-06-24 02:42:00,45.8,43.9,29.76,SW,226,0.0,0.0,93,0.00,,---,0.00,VWS V14.01,2013-06-24 10:42:00,
2013-06-24 02:44:00,45.8,44.2,29.76,SW,226,0.0,0.0,94,0.00,,---,0.00,VWS V14.01,2013-06-24 10:44:00,
2013-06-24 02:45:00,45.8,44.2,29.75,SW,226,0.0,0.0,94,0.00,,---,0.00,VWS V14.01,2013-06-24 10:45:00,
2013-06-24 02:46:00,45.9,44.3,29.76,SW,226,0.0,0.0,94,0.00,,---,0.00,VWS V14.01,2013-06-24 10:46:00,
2013-06-24 02:47:00,45.9,44.3,29.76,SW,226,0.0,0.0,94,0.00,,---,0.00,VWS V14.01,2013-06-24 10:47:00,
2013-06-24 02:50:00,46.0,44.4,29.76,SW,226,0.0,0.0,94,0.00,,---,0.00,VWS V14.01,2013-06-24 10:50:00,
2013-06-24 02:51:00,46.0,44.4,29.76,SW,226,0.0,0.0,94,0.00,,---,0.00,VWS V14.01,2013-06-24 10:51:00,
2013-06-24 02:52:00,46.0,44.4,29.76,SW,226,0.0,0.0,94,0.00,,---,0.00,VWS V14.01,2013-06-24 10:52:00,
2013-06-24 02:53:00,46.0,44.4,29.76,SW,226,0.0,0.0,94,0.00,,---,0.00,VWS V14.01,2013-06-24 10:53:00,
2013-06-24 02:55:00,46.1,44.5,29.76,SW,226,0.0,0.0,94,0.00,,---,0.00,VWS V14.01,2013-06-24 10:55:00,
2013-06-24 02:56:00,46.2,44.6,29.76,SW,226,0.0,0.0,94,0.00,,---,0.00,VWS V14.01,2013-06-24 10:56:00,
2013-06-24 02:57:00,46.2,44.6,29.76,SW,226,0.0,0.0,94,0.00,,---,0.00,VWS V14.01,2013-06-24 10:57:00,
2013-06-24 02:59:00,46.3,44.7,29.76,SW,226,0.0,0.0,94,0.00,,---,0.00,VWS V14.01,2013-06-24 10:59:00,
2013-06-24 03:00:00,46.2,44.6,29.76,SW,226,0.0,0.0,94,0.00,,---,0.00,VWS V14.01,2013-06-24 11:00:00,
2013-06-24 03:01:00,46.3,44.7,29.76,SW,226,0.0,0.0,94,0.00,,---,0.00,VWS V14.01,2013-06-24 11:01:00,
2013-06-24 03:02:00,46.3,44.7,29.76,SW,226,0.0,0.0,94,0.00,,---,0.00,VWS V14.01,2013-06-24 11:02:00,
2013-06-24 03:04:00,46.3,44.7,29.76,SW,226,0.0,0.0,94,0.00,,---,0.00,VWS V14.01,2013-06-24 11:04:00,
2013-06-24 03:05:00,46.3,44.7,29.76,SW,226,0.0,0.0,94,0.00,,---,0.00,VWS V14.01,2013-06-24 11:05:00,
2013-06-24 03:06:00,46.3,44.7,29.76,SW,226,0.0,0.0,94,0.00,,---,0.00,VWS V14.01,2013-06-24 11:06:00,
2013-06-24 03:07:00,46.3,44.7,29.76,SW,226,0.0,0.0,94,0.00,,---,0.00,VWS V14.01,2013-06-24 11:07:00,
2013-06-24 03:09:00,46.3,44.7,29.76,SW,226,0.0,0.0,94,0.00,,---,0.00,VWS V14.01,2013-06-24 11:09:00,
2013-06-24 03:10:00,46.3,44.7,29.76,SW,226,0.0,0.0,94,0.00,,---,0.00,VWS V14.01,2013-06-24 11:10:00,
2013-06-24 03:12:00,46.3,44.7,29.76,SW,226,0.0,0.0,94,0.00,,---,0.00,VWS V14.01,2013-06-24 11:12:00,
2013-06-24 03:13:00,46.3,44.7,29.76,SW,226,0.0,0.0,94,0.00,,---,0.00,VWS V14.01,2013-06-24 11:13:00,
2013-06-24 03:14:00,46.3,44.7,29.76,SW,226,0.0,0.0,94,0.00,,---,0.00,VWS V14.01,2013-06-24 11:14:00,
2013-06-24 03:15:00,46.3,44.7,29.76,SW,226,0.0,0.0,94,0.00,,---,0.00,VWS V14.01,2013-06-24 11:15:00,
2013-06-24 03:17:00,46.3,44.7,29.76,SW,226,0.0,1.0,94,0.00,,---,0.00,VWS V14.01,2013-06-24 11:17:00,
2013-06-24 03:18:00,46.3,44.7,29.76,SW,226,0.0,1.0,94,0.00,,---,0.00,VWS V14.01,2013-06-24 11:18:00,
2013-06-24 03:20:00,46.3,44.7,29.76,SW,226,0.0,1.0,94,0.00,,---,0.00,VWS V14.01,2013-06-24 11:20:00,
2013-06-24 03:23:00,46.4,44.8,29.76,WSW,237,0.0,3.0,94,0.00,,---,0.00,VWS V14.01,2013-06-24 11:23:00,
2013-06-24 03:25:00,46.6,45.0,29.76,WSW,240,0.0,3.0,94,0.00,,---,0.00,VWS V14.01,2013-06-24 11:25:00,
2013-06-24 03:28:00,47.2,45.6,29.76,NNW,330,0.0,5.0,94,0.00,,---,0.00,VWS V14.01,2013-06-24 11:28:00,
2013-06-24 03:29:00,47.4,45.8,29.76,NNW,330,2.0,5.0,94,0.00,,---,0.00,VWS V14.01,2013-06-24 11:29:00,
2013-06-24 03:30:00,47.7,46.1,29.76,NNW,328,3.0,5.0,94,0.00,,---,0.00,VWS V14.01,2013-06-24 11:30:00,
2013-06-24 03:33:00,48.3,46.1,29.76,NW,312,2.0,6.0,92,0.00,,---,0.00,VWS V14.01,2013-06-24 11:33:00,
2013-06-24 03:34:00,48.4,46.2,29.76,NW,321,2.0,6.0,92,0.00,,---,0.00,VWS V14.01,2013-06-24 11:34:00,
2013-06-24 03:35:00,48.6,46.1,29.76,NW,321,0.0,6.0,91,0.00,,---,0.00,VWS V14.01,2013-06-24 11:35:00,
2013-06-24 03:38:00,48.8,46.0,29.76,NW,321,2.0,2.0,90,0.00,,---,0.00,VWS V14.01,2013-06-24 11:38:00,
2013-06-24 03:39:00,48.8,46.0,29.76,NW,321,1.0,2.0,90,0.00,,---,0.00,VWS V14.01,2013-06-24 11:39:00,
2013-06-24 03:40:00,48.7,46.2,29.76,NW,321,0.0,6.0,91,0.00,,---,0.00,VWS V14.01,2013-06-24 11:40:00,
2013-06-24 03:41:00,49.0,45.9,29.76,NW,321,0.0,2.0,89,0.00,,---,0.00,VWS V14.01,2013-06-24 11:41:00,
2013-06-24 03:43:00,49.0,45.9,29.76,NW,321,0.0,3.0,89,0.00,,---,0.00,VWS V14.01,2013-06-24 11:43:00,
2013-06-24 03:44:00,49.0,45.9,29.76,NW,321,5.0,5.0,89,0.00,,---,0.00,VWS V14.01,2013-06-24 11:44:00,
2013-06-24 03:45:00,49.0,45.9,29.76,NW,321,0.0,2.0,89,0.00,,---,0.00,VWS V14.01,2013-06-24 11:45:00,
2013-06-24 03:46:00,49.0,45.6,29.76,NW,321,2.0,5.0,88,0.00,,---,0.00,VWS V14.01,2013-06-24 11:46:00,
2013-06-24 03:48:00,49.0,45.6,29.76,NW,319,2.0,4.0,88,0.00,,---,0.00,VWS V14.01,2013-06-24 11:48:00,
2013-06-24 03:49:00,49.0,45.6,29.76,NW,319,3.0,4.0,88,0.00,,---,0.00,VWS V14.01,2013-06-24 11:49:00,
2013-06-24 03:50:00,49.0,45.6,29.76,NW,319,1.0,5.0,88,0.00,,---,0.00,VWS V14.01,2013-06-24 11:50:00,
2013-06-24 03:51:00,49.0,45.6,29.76,NW,319,3.0,5.0,88,0.00,,---,0.00,VWS V14.01,2013-06-24 11:51:00,
2013-06-24 03:53:00,49.1,45.7,29.76,NNW,328,0.0,5.0,88,0.00,,---,0.00,VWS V14.01,2013-06-24 11:53:00,
2013-06-24 03:54:00,49.1,45.4,29.76,NNW,328,0.0,5.0,87,0.00,,---,0.00,VWS V14.01,2013-06-24 11:54:00,
2013-06-24 03:55:00,49.1,45.4,29.76,NNW,328,0.0,5.0,87,0.00,,---,0.00,VWS V14.01,2013-06-24 11:55:00,
2013-06-24 03:56:00,49.2,45.5,29.76,NNW,328,0.0,5.0,87,0.00,,---,0.00,VWS V14.01,2013-06-24 11:56:00,
2013-06-24 03:59:00,49.2,45.5,29.76,NNW,328,0.0,1.0,87,0.00,,---,0.00,VWS V14.01,2013-06-24 11:59:00,
2013-06-24 04:00:00,49.2,45.5,29.76,NNW,328,0.0,1.0,87,0.00,,---,0.00,VWS V14.01,2013-06-24 12:00:00,
2013-06-24 04:01:00,49.1,45.4,29.76,NNW,328,0.0,1.0,87,0.00,,---,0.00,VWS V14.01,2013-06-24 12:01:00,
2013-06-24 04:04:00,49.1,45.4,29.76,NW,325,0.0,0.0,87,0.00,,---,0.00,VWS V14.01,2013-06-24 12:04:00,
2013-06-24 04:05:00,49.1,45.4,29.76,NW,325,0.0,0.0,87,0.00,,---,0.00,VWS V14.01,2013-06-24 12:05:00,
2013-06-24 04:06:00,49.1,45.4,29.76,NW,325,1.0,1.0,87,0.00,,---,0.00,VWS V14.01,2013-06-24 12:06:00,
2013-06-24 04:09:00,49.1,45.4,29.76,NW,325,1.0,4.0,87,0.00,,---,0.00,VWS V14.01,2013-06-24 12:09:00,
2013-06-24 04:10:00,49.1,45.4,29.76,NW,325,1.0,4.0,87,0.00,,---,0.00,VWS V14.01,2013-06-24 12:10:00,
2013-06-24 04:11:00,49.1,45.4,29.76,NW,321,0.0,2.0,87,0.00,,---,0.00,VWS V14.01,2013-06-24 12:11:00,
2013-06-24 04:12:00,49.1,45.4,29.76,NW,321,0.0,2.0,87,0.00,,---,0.00,VWS V14.01,2013-06-24 12:12:00,
2013-06-24 04:15:00,49.1,45.4,29.76,NW,317,2.0,4.0,87,0.00,,---,0.00,VWS V14.01,2013-06-24 12:15:00,
2013-06-24 04:17:00,49.1,45.4,29.76,NW,320,2.0,3.0,87,0.00,,---,0.00,VWS V14.01,2013-06-24 12:17:00,
2013-06-24 04:20:00,49.1,45.4,29.76,NW,320,2.0,3.0,87,0.00,,---,0.00,VWS V14.01,2013-06-24 12:20:00,
2013-06-24 04:22:00,49.1,45.4,29.76,NW,320,2.0,2.0,87,0.00,,---,0.00,VWS V14.01,2013-06-24 12:22:00,
2013-06-24 04:23:00,49.1,45.4,29.76,NW,320,0.0,3.0,87,0.00,,---,0.00,VWS V14.01,2013-06-24 12:23:00,
2013-06-24 04:25:00,49.1,45.4,29.76,NW,320,0.0,3.0,87,0.00,,---,0.00,VWS V14.01,2013-06-24 12:25:00,
2013-06-24 04:26:00,49.1,45.4,29.76,NW,320,2.0,4.0,87,0.00,,---,0.00,VWS V14.01,2013-06-24 12:26:00,
2013-06-24 04:27:00,49.2,45.5,29.76,NW,320,2.0,4.0,87,0.00,,---,0.00,VWS V14.01,2013-06-24 12:27:00,
2013-06-24 04:29:00,49.3,45.6,29.76,NW,319,2.0,6.0,87,0.00,,---,0.00,VWS V14.01,2013-06-24 12:29:00,
2013-06-24 04:30:00,49.2,45.5,29.76,NW,320,1.0,4.0,87,0.00,,---,0.00,VWS V14.01,2013-06-24 12:30:00,
2013-06-24 04:31:00,49.4,45.7,29.76,NW,319,5.0,6.0,87,0.00,,---,0.00,VWS V14.01,2013-06-24 12:31:00,
2013-06-24 04:33:00,49.4,45.4,29.76,NW,325,3.0,5.0,86,0.00,,---,0.00,VWS V14.01,2013-06-24 12:33:00,
2013-06-24 04:35:00,47.0,44.2,29.76,NNW,333,2.0,5.0,90,0.00,,---,0.00,VWS V14.01,2013-06-24 12:35:00,
2013-06-24 04:36:00,47.0,44.2,29.76,NNW,329,3.0,5.0,90,0.00,,---,0.00,VWS V14.01,2013-06-24 12:36:00,
2013-06-24 04:39:00,46.8,44.0,29.76,NW,319,2.0,3.0,90,0.00,,---,0.00,VWS V14.01,2013-06-24 12:39:00,
2013-06-24 04:40:00,46.7,43.9,29.76,NW,319,2.0,3.0,90,0.00,,---,0.00,VWS V14.01,2013-06-24 12:40:00,
2013-06-24 04:42:00,46.7,44.2,29.76,NW,319,2.0,2.0,91,0.00,,---,0.00,VWS V14.01,2013-06-24 12:42:00,
2013-06-24 04:44:00,46.6,44.1,29.76,NW,315,2.0,3.0,91,0.00,,---,0.00,VWS V14.01,2013-06-24 12:44:00,
2013-06-24 04:45:00,46.6,44.1,29.76,NW,315,1.0,3.0,91,0.00,,---,0.00,VWS V14.01,2013-06-24 12:45:00,
2013-06-24 04:47:00,46.6,44.1,29.76,NW,311,1.0,1.0,91,0.00,,---,0.00,VWS V14.01,2013-06-24 12:47:00,
2013-06-24 04:49:00,46.5,44.0,29.76,WNW,292,3.0,3.0,91,0.00,,---,0.00,VWS V14.01,2013-06-24 12:49:00,
2013-06-24 04:50:00,46.6,44.1,29.76,West,281,1.0,3.0,91,0.00,,---,0.00,VWS V14.01,2013-06-24 12:50:00,
2013-06-24 04:51:00,46.5,44.0,29.76,West,281,1.0,3.0,91,0.00,,---,0.00,VWS V14.01,2013-06-24 12:51:00,
2013-06-24 04:52:00,46.6,44.1,29.76,West,281,2.0,2.0,91,0.00,,---,0.00,VWS V14.01,2013-06-24 12:52:00,
2013-06-24 04:54:00,46.7,44.2,29.76,WNW,302,3.0,4.0,91,0.00,,---,0.00,VWS V14.01,2013-06-24 12:54:00,
2013-06-24 04:55:00,46.6,44.1,29.76,West,281,2.0,3.0,91,0.00,,---,0.00,VWS V14.01,2013-06-24 12:55:00,
2013-06-24 04:56:00,46.7,44.2,29.76,WNW,300,2.0,4.0,91,0.00,,---,0.00,VWS V14.01,2013-06-24 12:56:00,
2013-06-24 04:57:00,46.8,44.3,29.76,NW,310,2.0,3.0,91,0.00,,---,0.00,VWS V14.01,2013-06-24 12:57:00,
2013-06-24 04:59:00,46.8,44.3,29.76,NW,321,3.0,3.0,91,0.00,,---,0.00,VWS V14.01,2013-06-24 12:59:00,
2013-06-24 05:00:00,46.7,44.2,29.76,NW,310,3.0,4.0,91,0.00,,---,0.00,VWS V14.01,2013-06-24 13:00:00,
2013-06-24 05:01:00,46.9,44.4,29.76,NW,313,3.0,3.0,91,0.00,,---,0.00,VWS V14.01,2013-06-24 13:01:00,
2013-06-24 05:02:00,46.9,44.4,29.76,NW,317,2.0,4.0,91,0.00,,---,0.00,VWS V14.01,2013-06-24 13:02:00,
2013-06-24 05:05:00,47.1,44.6,29.76,NW,321,4.0,4.0,91,0.00,,---,0.00,VWS V14.01,2013-06-24 13:05:00,
2013-06-24 05:06:00,47.2,44.7,29.76,NNW,337,2.0,4.0,91,0.00,,---,0.00,VWS V14.01,2013-06-24 13:06:00,
2013-06-24 05:07:00,47.3,44.8,29.76,North,355,3.0,3.0,91,0.00,,---,0.00,VWS V14.01,2013-06-24 13:07:00,
2013-06-24 05:10:00,47.6,44.8,29.76,NNW,340,3.0,4.0,90,0.00,,---,0.00,VWS V14.01,2013-06-24 13:10:00,
2013-06-24 05:11:00,47.6,44.8,29.76,NNW,340,3.0,4.0,90,0.00,,---,0.00,VWS V14.01,2013-06-24 13:11:00,
2013-06-24 05:12:00,47.6,44.8,29.76,NNW,333,3.0,3.0,90,0.00,,---,0.00,VWS V14.01,2013-06-24 13:12:00,
2013-06-24 05:15:00,47.6,44.8,29.76,NNW,340,3.0,4.0,90,0.00,,---,0.00,VWS V14.01,2013-06-24 13:15:00,
2013-06-24 05:16:00,47.7,44.9,29.76,North,355,3.0,4.0,90,0.00,,---,0.00,VWS V14.01,2013-06-24 13:16:00,
2013-06-24 05:18:00,47.8,45.0,29.76,NNW,344,3.0,4.0,90,0.00,,---,0.00,VWS V14.01,2013-06-24 13:18:00,
2013-06-24 05:20:00,47.8,45.0,29.76,NNW,348,3.0,4.0,90,0.00,,---,0.00,VWS V14.01,2013-06-24 13:20:00,
2013-06-24 05:21:00,47.9,45.1,29.76,NNW,335,1.0,4.0,90,0.00,,---,0.00,VWS V14.01,2013-06-24 13:21:00,
2013-06-24 05:23:00,48.2,45.1,29.76,NNW,344,2.0,5.0,89,0.00,,---,0.00,VWS V14.01,2013-06-24 13:23:00,
2013-06-24 05:25:00,48.0,45.2,29.76,NNW,334,3.0,4.0,90,0.00,,---,0.00,VWS V14.01,2013-06-24 13:25:00,
2013-06-24 05:26:00,48.4,45.3,29.76,NNW,337,3.0,5.0,89,0.00,,---,0.00,VWS V14.01,2013-06-24 13:26:00,
2013-06-24 05:27:00,48.5,45.4,29.76,North,355,5.0,5.0,89,0.00,,---,0.00,VWS V14.01,2013-06-24 13:27:00,
2013-06-24 05:28:00,48.6,45.2,29.76,NNW,348,3.0,6.0,88,0.00,,---,0.00,VWS V14.01,2013-06-24 13:28:00,
2013-06-24 05:29:00,48.6,45.2,29.76,North,360,2.0,6.0,88,0.00,,---,0.00,VWS V14.01,2013-06-24 13:29:00,
2013-06-24 05:30:00,48.4,45.3,29.76,NNW,345,3.0,5.0,89,0.00,,---,0.00,VWS V14.01,2013-06-24 13:30:00,
2013-06-24 05:31:00,48.6,45.2,29.76,NNW,347,3.0,6.0,88,0.00,,---,0.00,VWS V14.01,2013-06-24 13:31:00,
2013-06-24 05:32:00,48.6,45.2,29.76,North,355,3.0,4.0,88,0.00,,---,0.00,VWS V14.01,2013-06-24 13:32:00,
2013-06-24 05:33:00,48.7,45.3,29.76,NNW,347,2.0,5.0,88,0.00,,---,0.00,VWS V14.01,2013-06-24 13:33:00,
2013-06-24 05:34:00,48.7,45.3,29.76,NNW,332,3.0,5.0,88,0.00,,---,0.00,VWS V14.01,2013-06-24 13:34:00,
2013-06-24 05:35:00,48.6,45.2,29.76,NNW,336,4.0,6.0,88,0.00,,---,0.00,VWS V14.01,2013-06-24 13:35:00,
2013-06-24 05:36:00,48.7,45.3,29.76,North,9,4.0,6.0,88,0.00,,---,0.00,VWS V14.01,2013-06-24 13:36:00,
2013-06-24 05:37:00,48.8,45.4,29.76,North,360,3.0,4.0,88,0.00,,---,0.00,VWS V14.01,2013-06-24 13:37:00,
2013-06-24 05:39:00,48.8,45.4,29.76,North,355,3.0,4.0,88,0.00,,---,0.00,VWS V14.01,2013-06-24 13:39:00,
2013-06-24 05:40:00,48.7,45.3,29.76,North,5,4.0,6.0,88,0.00,,---,0.00,VWS V14.01,2013-06-24 13:40:00,
2013-06-24 05:41:00,48.9,45.5,29.76,North,5,3.0,4.0,88,0.00,,---,0.00,VWS V14.01,2013-06-24 13:41:00,
2013-06-24 05:42:00,49.0,45.6,29.76,North,5,2.0,4.0,88,0.00,,---,0.00,VWS V14.01,2013-06-24 13:42:00,
2013-06-24 05:44:00,49.0,45.6,29.76,North,360,3.0,5.0,88,0.00,,---,0.00,VWS V14.01,2013-06-24 13:44:00,
2013-06-24 05:45:00,49.1,45.7,29.76,North,5,3.0,5.0,88,0.00,,---,0.00,VWS V14.01,2013-06-24 13:45:00,
2013-06-24 05:47:00,49.1,45.4,29.76,NNW,339,4.0,5.0,87,0.00,,---,0.00,VWS V14.01,2013-06-24 13:47:00,
2013-06-24 05:49:00,49.3,45.6,29.76,North,5,4.0,7.0,87,0.00,,---,0.00,VWS V14.01,2013-06-24 13:49:00,
2013-06-24 05:50:00,49.3,45.6,29.76,North,10,6.0,7.0,87,0.00,,---,0.00,VWS V14.01,2013-06-24 13:50:00,
2013-06-24 05:52:00,49.4,45.7,29.76,NNE,33,7.0,7.0,87,0.00,,---,0.00,VWS V14.01,2013-06-24 13:52:00,
2013-06-24 05:53:00,49.5,45.5,29.76,NNE,17,5.0,7.0,86,0.00,,---,0.00,VWS V14.01,2013-06-24 13:53:00,
2013-06-24 05:55:00,49.4,45.7,29.76,NNE,21,5.0,7.0,87,0.00,,---,0.00,VWS V14.01,2013-06-24 13:55:00,
2013-06-24 05:56:00,49.6,45.6,29.76,North,10,4.0,7.0,86,0.00,,---,0.00,VWS V14.01,2013-06-24 13:56:00,
2013-06-24 05:58:00,49.8,45.8,29.76,NNE,19,5.0,7.0,86,0.00,,---,0.00,VWS V14.01,2013-06-24 13:58:00,
2013-06-24 06:00:00,49.7,45.7,29.76,North,355,7.0,7.0,86,0.00,,---,0.00,VWS V14.01,2013-06-24 14:00:00,
2013-06-24 06:01:00,49.9,45.6,29.76,NNE,15,2.0,7.0,85,0.00,,---,0.00,VWS V14.01,2013-06-24 14:01:00,
2013-06-24 06:05:00,49.9,45.6,29.76,North,10,5.0,7.0,85,0.00,,---,0.00,VWS V14.01,2013-06-24 14:05:00,
2013-06-24 06:06:00,49.9,45.6,29.76,North,9,4.0,7.0,85,0.00,,---,0.00,VWS V14.01,2013-06-24 14:06:00,
2013-06-24 06:07:00,49.9,45.6,29.76,NNE,25,4.0,7.0,85,0.00,,---,0.00,VWS V14.01,2013-06-24 14:07:00,
2013-06-24 06:10:00,49.9,45.6,29.76,North,5,4.0,7.0,85,0.00,,---,0.00,VWS V14.01,2013-06-24 14:10:00,
2013-06-24 06:11:00,49.9,45.6,29.76,North,360,3.0,7.0,85,0.00,,---,0.00,VWS V14.01,2013-06-24 14:11:00,
2013-06-24 06:12:00,49.8,45.5,29.76,North,360,3.0,5.0,85,0.00,,---,0.00,VWS V14.01,2013-06-24 14:12:00,
2013-06-24 06:15:00,49.8,45.5,29.76,North,360,4.0,7.0,85,0.00,,---,0.00,VWS V14.01,2013-06-24 14:15:00,
2013-06-24 06:16:00,49.8,45.5,29.76,NNE,23,4.0,5.0,85,0.00,,---,0.00,VWS V14.01,2013-06-24 14:16:00,
2013-06-24 06:17:00,49.8,45.5,29.76,North,360,2.0,5.0,85,0.00,,---,0.00,VWS V14.01,2013-06-24 14:17:00,
2013-06-24 06:20:00,49.8,45.5,29.76,North,360,4.0,5.0,85,0.00,,---,0.00,VWS V14.01,2013-06-24 14:20:00,
2013-06-24 06:21:00,49.8,45.8,29.76,North,355,3.0,3.0,86,0.00,,---,0.00,VWS V14.01,2013-06-24 14:21:00,
2013-06-24 06:22:00,49.8,45.8,29.76,North,360,3.0,5.0,86,0.00,,---,0.00,VWS V14.01,2013-06-24 14:22:00,
2013-06-24 06:23:00,49.8,45.8,29.76,North,355,2.0,5.0,86,0.00,,---,0.00,VWS V14.01,2013-06-24 14:23:00,
2013-06-24 06:25:00,49.8,45.8,29.76,NNE,12,3.0,5.0,86,0.00,,---,0.00,VWS V14.01,2013-06-24 14:25:00,
2013-06-24 06:27:00,50.1,45.8,29.76,NNE,12,5.0,5.0,85,0.00,,---,0.00,VWS V14.01,2013-06-24 14:27:00,
2013-06-24 06:28:00,50.2,45.9,29.76,North,5,5.0,6.0,85,0.00,,---,0.00,VWS V14.01,2013-06-24 14:28:00,
2013-06-24 06:30:00,50.0,45.7,29.76,NNE,20,4.0,7.0,85,0.00,,---,0.00,VWS V14.01,2013-06-24 14:30:00,
2013-06-24 06:32:00,50.4,45.8,29.76,NNE,17,4.0,6.0,84,0.00,,---,0.00,VWS V14.01,2013-06-24 14:32:00,
2013-06-24 06:33:00,50.5,45.8,29.76,North,355,3.0,6.0,84,0.00,,---,0.00,VWS V14.01,2013-06-24 14:33:00,
2013-06-24 06:34:00,50.5,45.8,29.76,North,9,3.0,6.0,84,0.00,,---,0.00,VWS V14.01,2013-06-24 14:34:00,
2013-06-24 06:35:00,50.4,45.8,29.76,NNE,14,4.0,6.0,84,0.00,,---,0.00,VWS V14.01,2013-06-24 14:35:00,
2013-06-24 06:37:00,50.5,45.8,29.76,North,351,4.0,4.0,84,0.00,,---,0.00,VWS V14.01,2013-06-24 14:37:00,
2013-06-24 06:38:00,50.6,46.0,29.76,North,9,5.0,7.0,84,0.00,,---,0.00,VWS V14.01,2013-06-24 14:38:00,
2013-06-24 06:39:00,50.6,46.0,29.76,NNE,20,4.0,7.0,84,0.00,,---,0.00,VWS V14.01,2013-06-24 14:39:00,
2013-06-24 06:40:00,50.5,45.8,29.76,NNE,22,4.0,6.0,84,0.00,,---,0.00,VWS V14.01,2013-06-24 14:40:00,
2013-06-24 06:42:00,50.6,46.0,29.76,North,355,3.0,5.0,84,0.00,,---,0.00,VWS V14.01,2013-06-24 14:42:00,
2013-06-24 06:43:00,50.6,46.0,29.76,North,5,3.0,5.0,84,0.00,,---,0.00,VWS V14.01,2013-06-24 14:43:00,
2013-06-24 06:44:00,50.6,46.0,29.76,North,9,7.0,7.0,84,0.00,,---,0.00,VWS V14.01,2013-06-24 14:44:00,
2013-06-24 06:45:00,50.6,46.0,29.76,North,5,3.0,7.0,84,0.00,,---,0.00,VWS V14.01,2013-06-24 14:45:00,
2013-06-24 06:47:00,50.7,46.0,29.76,North,355,2.0,5.0,84,0.00,,---,0.00,VWS V14.01,2013-06-24 14:47:00,
2013-06-24 06:49:00,50.7,46.0,29.76,North,10,2.0,5.0,84,0.00,,---,0.00,VWS V14.01,2013-06-24 14:49:00,
2013-06-24 06:50:00,50.7,46.0,29.76,NNE,13,4.0,7.0,84,0.00,,---,0.00,VWS V14.01,2013-06-24 14:50:00,
2013-06-24 06:53:00,50.8,46.2,29.76,North,5,5.0,5.0,84,0.00,,---,0.00,VWS V14.01,2013-06-24 14:53:00,
2013-06-24 06:54:00,50.9,46.2,29.76,NNW,347,3.0,5.0,84,0.00,,---,0.00,VWS V14.01,2013-06-24 14:54:00,
2013-06-24 06:55:00,50.9,45.9,29.76,North,360,2.0,6.0,83,0.00,,---,0.00,VWS V14.01,2013-06-24 14:55:00,
2013-06-24 06:58:00,51.4,46.4,29.76,NNW,327,5.0,8.0,83,0.00,,---,0.00,VWS V14.01,2013-06-24 14:58:00,
2013-06-24 06:59:00,51.4,46.4,29.76,NW,317,5.0,8.0,83,0.00,,---,0.00,VWS V14.01,2013-06-24 14:59:00,
2013-06-24 07:00:00,51.5,46.5,29.76,NNW,336,5.0,8.0,83,0.00,,---,0.00,VWS V14.01,2013-06-24 15:00:00,
2013-06-24 07:03:00,51.8,46.5,29.76,NNW,342,4.0,10.0,82,0.00,,---,0.00,VWS V14.01,2013-06-24 15:03:00,
2013-06-24 07:04:00,51.9,46.6,29.76,NNW,328,4.0,10.0,82,0.00,,---,0.00,VWS V14.01,2013-06-24 15:04:00,
2013-06-24 07:05:00,52.0,46.7,29.76,NW,315,4.0,10.0,82,0.00,,---,0.00,VWS V14.01,2013-06-24 15:05:00,
2013-06-24 07:06:00,52.1,46.8,29.76,NW,311,4.0,10.0,82,0.00,,---,0.00,VWS V14.01,2013-06-24 15:06:00,
2013-06-24 07:08:00,52.2,46.9,29.76,NNW,327,1.0,6.0,82,0.00,,---,0.00,VWS V14.01,2013-06-24 15:08:00,
2013-06-24 07:10:00,52.3,47.0,29.76,NW,323,2.0,6.0,82,0.00,,---,0.00,VWS V14.01,2013-06-24 15:10:00,
2013-06-24 07:11:00,52.3,47.0,29.76,NW,309,4.0,6.0,82,0.00,,---,0.00,VWS V14.01,2013-06-24 15:11:00,
2013-06-24 07:14:00,52.5,47.2,29.76,NW,324,2.0,5.0,82,0.00,,---,0.00,VWS V14.01,2013-06-24 15:14:00,
2013-06-24 07:15:00,52.5,47.2,29.76,NW,324,1.0,5.0,82,0.00,,---,0.00,VWS V14.01,2013-06-24 15:15:00,
2013-06-24 07:16:00,52.6,47.3,29.77,NW,324,0.0,1.0,82,0.00,,---,0.00,VWS V14.01,2013-06-24 15:16:00,
2013-06-24 07:17:00,52.6,47.3,29.77,NW,324,0.0,3.0,82,0.00,,---,0.00,VWS V14.01,2013-06-24 15:17:00,
2013-06-24 07:20:00,52.7,47.4,29.76,NW,324,3.0,3.0,82,0.00,,---,0.00,VWS V14.01,2013-06-24 15:20:00,
2013-06-24 07:21:00,52.7,47.4,29.77,NW,309,3.0,3.0,82,0.00,,---,0.00,VWS V14.01,2013-06-24 15:21:00,
2013-06-24 07:22:00,52.7,47.4,29.77,NW,309,3.0,3.0,82,0.00,,---,0.00,VWS V14.01,2013-06-24 15:22:00,
2013-06-24 07:25:00,52.7,47.0,29.77,NW,318,2.0,6.0,81,0.00,,---,0.00,VWS V14.01,2013-06-24 15:25:00,
2013-06-24 07:26:00,52.7,47.0,29.77,NW,318,1.0,6.0,81,0.00,,---,0.00,VWS V14.01,2013-06-24 15:26:00,
2013-06-24 07:27:00,52.7,47.0,29.77,NW,318,1.0,2.0,81,0.00,,---,0.00,VWS V14.01,2013-06-24 15:27:00,
2013-06-24 07:30:00,52.7,47.0,29.77,NW,321,0.0,6.0,81,0.00,,---,0.00,VWS V14.01,2013-06-24 15:30:00,
2013-06-24 07:31:00,52.7,47.0,29.77,NW,321,0.0,1.0,81,0.00,,---,0.00,VWS V14.01,2013-06-24 15:31:00,
2013-06-24 07:32:00,52.7,47.0,29.77,NW,321,4.0,4.0,81,0.00,,---,0.00,VWS V14.01,2013-06-24 15:32:00,
2013-06-24 07:35:00,52.9,47.2,29.77,NNW,334,4.0,4.0,81,0.00,,---,0.00,VWS V14.01,2013-06-24 15:35:00,
2013-06-24 07:37:00,52.9,47.2,29.77,NNW,330,2.0,3.0,81,0.00,,---,0.00,VWS V14.01,2013-06-24 15:37:00,
2013-06-24 07:38:00,53.0,47.3,29.77,NW,323,2.0,6.0,81,0.00,,---,0.00,VWS V14.01,2013-06-24 15:38:00,
2013-06-24 07:40:00,52.9,47.2,29.77,NNW,330,2.0,4.0,81,0.00,,---,0.00,VWS V14.01,2013-06-24 15:40:00,
2013-06-24 07:41:00,53.3,47.6,29.77,NW,304,4.0,6.0,81,0.00,,---,0.00,VWS V14.01,2013-06-24 15:41:00,
2013-06-24 07:42:00,53.3,47.6,29.77,NW,304,2.0,6.0,81,0.00,,---,0.00,VWS V14.01,2013-06-24 15:42:00,
2013-06-24 07:43:00,53.4,47.7,29.77,WNW,300,1.0,6.0,81,0.00,,---,0.00,VWS V14.01,2013-06-24 15:43:00,
2013-06-24 07:45:00,53.3,47.6,29.77,WNW,290,4.0,6.0,81,0.00,,---,0.00,VWS V14.01,2013-06-24 15:45:00,
2013-06-24 07:47:00,53.5,47.5,29.77,NW,313,3.0,5.0,80,0.00,,---,0.00,VWS V14.01,2013-06-24 15:47:00,
2013-06-24 07:48:00,53.5,47.8,29.77,NW,313,1.0,5.0,81,0.00,,---,0.00,VWS V14.01,2013-06-24 15:48:00,
2013-06-24 07:50:00,53.5,47.8,29.77,NW,319,4.0,6.0,81,0.00,,---,0.00,VWS V14.01,2013-06-24 15:50:00,
2013-06-24 07:53:00,53.6,47.9,29.77,NNW,343,4.0,5.0,81,0.00,,---,0.00,VWS V14.01,2013-06-24 15:53:00,
2013-06-24 07:54:00,53.6,47.6,29.77,NW,326,3.0,8.0,80,0.00,,---,0.00,VWS V14.01,2013-06-24 15:54:00,
2013-06-24 07:55:00,53.6,47.9,29.77,NNW,328,2.0,6.0,81,0.00,,---,0.00,VWS V14.01,2013-06-24 15:55:00,
2013-06-24 07:58:00,53.6,47.9,29.77,NW,318,3.0,4.0,81,0.00,,---,0.00,VWS V14.01,2013-06-24 15:58:00,
2013-06-24 08:00:00,53.5,47.8,29.77,NW,325,1.0,5.0,81,0.00,,---,0.00,VWS V14.01,2013-06-24 16:00:00,
2013-06-24 08:03:00,53.5,47.8,29.77,NW,320,0.0,4.0,81,0.00,,---,0.00,VWS V14.01,2013-06-24 16:03:00,
2013-06-24 08:05:00,53.5,47.8,29.77,NW,315,1.0,5.0,81,0.00,,---,0.00,VWS V14.01,2013-06-24 16:05:00,
2013-06-24 08:08:00,53.3,47.3,29.77,NNW,338,6.0,8.0,80,0.00,,---,0.00,VWS V14.01,2013-06-24 16:08:00,
2013-06-24 08:10:00,53.2,47.5,29.77,NNW,338,5.0,8.0,81,0.00,,---,0.00,VWS V14.01,2013-06-24 16:10:00,
2013-06-24 08:11:00,53.2,47.5,29.77,NNW,330,2.0,8.0,81,0.00,,---,0.00,VWS V14.01,2013-06-24 16:11:00,
2013-06-24 08:14:00,53.1,47.4,29.77,NNW,329,2.0,5.0,81,0.00,,---,0.00,VWS V14.01,2013-06-24 16:14:00,
2013-06-24 08:15:00,53.1,47.8,29.77,NW,315,3.0,6.0,82,0.00,,---,0.00,VWS V14.01,2013-06-24 16:15:00,
2013-06-24 08:16:00,53.1,47.8,29.77,NNW,331,3.0,3.0,82,0.00,,---,0.00,VWS V14.01,2013-06-24 16:16:00,
2013-06-24 08:19:00,53.3,48.0,29.77,North,5,5.0,9.0,82,0.00,,---,0.00,VWS V14.01,2013-06-24 16:19:00,
2013-06-24 08:20:00,53.4,48.0,29.77,NW,320,5.0,9.0,82,0.00,,---,0.00,VWS V14.01,2013-06-24 16:20:00,
2013-06-24 08:21:00,53.5,48.5,29.77,NW,304,3.0,9.0,83,0.00,,---,0.00,VWS V14.01,2013-06-24 16:21:00,
2013-06-24 08:22:00,53.6,48.6,29.77,WNW,299,2.0,5.0,83,0.00,,---,0.00,VWS V14.01,2013-06-24 16:22:00,
2013-06-24 08:24:00,53.7,49.0,29.76,NW,308,0.0,5.0,84,0.00,,---,0.00,VWS V14.01,2013-06-24 16:24:00,
2013-06-24 08:25:00,53.7,49.0,29.76,NW,306,0.0,5.0,84,0.00,,---,0.00,VWS V14.01,2013-06-24 16:25:00,
2013-06-24 08:26:00,53.7,49.3,29.76,NW,306,2.0,5.0,85,0.00,,---,0.00,VWS V14.01,2013-06-24 16:26:00,
2013-06-24 08:28:00,53.6,49.2,29.76,NW,320,1.0,4.0,85,0.00,,---,0.00,VWS V14.01,2013-06-24 16:28:00,
2013-06-24 08:29:00,53.5,49.1,29.76,NW,320,0.0,4.0,85,0.00,,---,0.00,VWS V14.01,2013-06-24 16:29:00,
2013-06-24 08:30:00,53.3,49.2,29.76,NW,320,1.0,4.0,86,0.00,,---,0.00,VWS V14.01,2013-06-24 16:30:00,
2013-06-24 08:31:00,53.2,49.1,29.76,NW,320,3.0,3.0,86,0.00,,---,0.00,VWS V14.01,2013-06-24 16:31:00,
2013-06-24 08:34:00,52.9,49.1,29.76,NW,320,7.0,7.0,87,0.00,,---,0.00,VWS V14.01,2013-06-24 16:34:00,
2013-06-24 08:35:00,53.2,49.1,29.76,NW,320,0.0,4.0,86,0.00,,---,0.00,VWS V14.01,2013-06-24 16:35:00,
2013-06-24 08:36:00,52.8,49.0,29.76,NNW,329,4.0,7.0,87,0.00,,---,0.00,VWS V14.01,2013-06-24 16:36:00,
2013-06-24 08:39:00,52.6,48.8,29.77,NNW,329,3.0,7.0,87,0.00,,---,0.00,VWS V14.01,2013-06-24 16:39:00,
2013-06-24 08:40:00,52.5,48.8,29.76,NNW,329,3.0,7.0,87,0.00,,---,0.00,VWS V14.01,2013-06-24 16:40:00,
2013-06-24 08:41:00,52.4,48.7,29.76,NNW,333,3.0,7.0,87,0.00,,---,0.00,VWS V14.01,2013-06-24 16:41:00,
2013-06-24 08:42:00,52.4,49.0,29.76,NNW,339,6.0,6.0,88,0.00,,---,0.00,VWS V14.01,2013-06-24 16:42:00,
2013-06-24 08:45:00,52.3,48.9,29.76,NW,315,5.0,7.0,88,0.00,,---,0.00,VWS V14.01,2013-06-24 16:45:00,
2013-06-24 08:46:00,52.3,48.9,29.76,NNW,341,3.0,7.0,88,0.00,,---,0.00,VWS V14.01,2013-06-24 16:46:00,
2013-06-24 08:47:00,52.3,49.2,29.76,NW,315,2.0,4.0,89,0.00,,---,0.00,VWS V14.01,2013-06-24 16:47:00,
2013-06-24 08:50:00,52.2,49.1,29.76,NNW,332,4.0,6.0,89,0.00,,---,0.00,VWS V14.01,2013-06-24 16:50:00,
2013-06-24 08:51:00,52.2,49.4,29.76,NNW,329,5.0,5.0,90,0.00,,---,0.00,VWS V14.01,2013-06-24 16:51:00,
2013-06-24 08:52:00,52.2,49.4,29.77,NNW,330,3.0,5.0,90,0.00,,---,0.00,VWS V14.01,2013-06-24 16:52:00,
2013-06-24 08:55:00,52.2,49.4,29.77,NNW,335,4.0,6.0,90,0.00,,---,0.00,VWS V14.01,2013-06-24 16:55:00,
2013-06-24 08:56:00,52.3,49.5,29.77,NNW,345,4.0,6.0,90,0.00,,---,0.00,VWS V14.01,2013-06-24 16:56:00,
2013-06-24 08:57:00,52.3,49.5,29.77,NNW,340,2.0,6.0,90,0.00,,---,0.00,VWS V14.01,2013-06-24 16:57:00,
2013-06-24 09:00:00,52.2,49.4,29.77,NNW,340,3.0,6.0,90,0.00,,---,0.00,VWS V14.01,2013-06-24 17:00:00,
2013-06-24 09:01:00,52.4,49.6,29.77,NNW,340,7.0,10.0,90,0.00,,---,0.00,VWS V14.01,2013-06-24 17:01:00,
2013-06-24 09:02:00,52.4,49.6,29.77,NW,326,9.0,9.0,90,0.00,,---,0.00,VWS V14.01,2013-06-24 17:02:00,
2013-06-24 09:05:00,52.4,49.6,29.77,NNW,340,7.0,10.0,90,0.00,,---,0.00,VWS V14.01,2013-06-24 17:05:00,
2013-06-24 09:06:00,52.6,49.8,29.77,NW,326,4.0,4.0,90,0.00,,---,0.00,VWS V14.01,2013-06-24 17:06:00,
2013-06-24 09:07:00,52.7,49.8,29.77,NNW,333,1.0,4.0,90,0.00,,---,0.00,VWS V14.01,2013-06-24 17:07:00,
2013-06-24 09:09:00,52.7,49.8,29.77,NNW,327,4.0,7.0,90,0.00,,---,0.00,VWS V14.01,2013-06-24 17:09:00,
2013-06-24 09:10:00,52.6,49.8,29.77,NW,319,3.0,9.0,90,0.00,,---,0.00,VWS V14.01,2013-06-24 17:10:00,
2013-06-24 09:11:00,52.7,49.8,29.77,NW,319,5.0,5.0,90,0.00,,---,0.00,VWS V14.01,2013-06-24 17:11:00,
2013-06-24 09:12:00,52.7,49.8,29.77,NW,317,3.0,6.0,90,0.00,,---,0.00,VWS V14.01,2013-06-24 17:12:00,
2013-06-24 09:13:00,52.7,49.8,29.77,NW,322,4.0,6.0,90,0.00,,---,0.00,VWS V14.01,2013-06-24 17:13:00,
2013-06-24 09:14:00,52.7,49.8,29.77,NW,318,4.0,7.0,90,0.00,,---,0.00,VWS V14.01,2013-06-24 17:14:00,
2013-06-24 09:15:00,52.7,49.8,29.77,NW,319,5.0,7.0,90,0.00,,---,0.00,VWS V14.01,2013-06-24 17:15:00,
2013-06-24 09:16:00,52.7,49.8,29.77,NW,321,4.0,4.0,90,0.00,,---,0.00,VWS V14.01,2013-06-24 17:16:00,
2013-06-24 09:17:00,52.6,49.8,29.77,NW,320,5.0,6.0,90,0.00,,---,0.00,VWS V14.01,2013-06-24 17:17:00,
2013-06-24 09:18:00,52.6,49.8,29.77,NW,325,3.0,6.0,90,0.00,,---,0.00,VWS V14.01,2013-06-24 17:18:00,
2013-06-24 09:20:00,52.6,50.0,29.77,NNW,333,4.0,6.0,91,0.00,,---,0.00,VWS V14.01,2013-06-24 17:20:00,
2013-06-24 09:23:00,52.6,50.0,29.77,NNW,333,5.0,5.0,91,0.00,,---,0.00,VWS V14.01,2013-06-24 17:23:00,
2013-06-24 09:25:00,52.5,50.0,29.77,NNW,331,3.0,6.0,91,0.00,,---,0.00,VWS V14.01,2013-06-24 17:25:00,
2013-06-24 09:28:00,52.5,50.0,29.77,NNW,337,2.0,5.0,91,0.00,,---,0.00,VWS V14.01,2013-06-24 17:28:00,
2013-06-24 09:30:00,52.5,50.0,29.77,NW,326,2.0,5.0,91,0.00,,---,0.00,VWS V14.01,2013-06-24 17:30:00,
2013-06-24 09:33:00,52.5,50.2,29.77,NNW,331,4.0,6.0,92,0.00,,---,0.00,VWS V14.01,2013-06-24 17:33:00,
2013-06-24 09:34:00,52.5,50.2,29.77,NNW,344,2.0,6.0,92,0.00,,---,0.00,VWS V14.01,2013-06-24 17:34:00,
2013-06-24 09:35:00,52.5,50.2,29.77,NNW,339,2.0,6.0,92,0.00,,---,0.00,VWS V14.01,2013-06-24 17:35:00,
2013-06-24 09:36:00,52.5,50.2,29.77,NW,319,5.0,5.0,92,0.00,,---,0.00,VWS V14.01,2013-06-24 17:36:00,
2013-06-24 09:39:00,52.6,50.3,29.77,NW,320,4.0,5.0,92,0.00,,---,0.00,VWS V14.01,2013-06-24 17:39:00,
2013-06-24 09:40:00,52.6,50.3,29.77,NW,323,4.0,5.0,92,0.01,,---,0.01,VWS V14.01,2013-06-24 17:40:00,
2013-06-24 09:41:00,52.7,50.5,29.77,NNW,328,2.0,5.0,92,0.01,,---,0.01,VWS V14.01,2013-06-24 17:41:00,
2013-06-24 09:45:00,52.8,50.5,29.77,NW,321,1.0,6.0,92,0.01,,---,0.01,VWS V14.01,2013-06-24 17:45:00,
2013-06-24 09:46:00,52.8,50.5,29.77,NW,325,0.0,6.0,92,0.01,,---,0.01,VWS V14.01,2013-06-24 17:46:00,
2013-06-24 09:50:00,53.0,50.7,29.77,NW,313,2.0,5.0,92,0.01,,---,0.01,VWS V14.01,2013-06-24 17:50:00,
2013-06-24 09:51:00,53.1,51.1,29.77,NW,313,4.0,4.0,93,0.01,,---,0.01,VWS V14.01,2013-06-24 17:51:00,
2013-06-24 09:55:00,53.4,51.4,29.77,NW,314,1.0,5.0,93,0.01,,---,0.01,VWS V14.01,2013-06-24 17:55:00,
2013-06-24 09:57:00,53.5,51.2,29.76,NW,314,3.0,3.0,92,0.01,,---,0.01,VWS V14.01,2013-06-24 17:57:00,
2013-06-24 10:00:00,53.7,51.4,29.76,NNW,331,2.0,7.0,92,0.01,,---,0.01,VWS V14.01,2013-06-24 18:00:00,
2013-06-24 10:02:00,53.9,51.6,29.76,NNW,331,3.0,5.0,92,0.01,,---,0.01,VWS V14.01,2013-06-24 18:02:00,
2013-06-24 10:05:00,54.1,51.8,29.77,NNW,333,0.0,5.0,92,0.01,,---,0.01,VWS V14.01,2013-06-24 18:05:00,
2013-06-24 10:06:00,54.2,51.9,29.76,NW,325,4.0,5.0,92,0.01,,---,0.01,VWS V14.01,2013-06-24 18:06:00,
2013-06-24 10:08:00,54.2,51.9,29.76,NNW,330,4.0,5.0,92,0.01,,---,0.01,VWS V14.01,2013-06-24 18:08:00,
2013-06-24 10:09:00,54.2,51.9,29.76,NNW,327,3.0,5.0,92,0.01,,---,0.01,VWS V14.01,2013-06-24 18:09:00,
2013-06-24 10:10:00,54.3,52.0,29.76,NNW,331,3.0,5.0,92,0.01,,---,0.01,VWS V14.01,2013-06-24 18:10:00,
2013-06-24 10:12:00,54.4,52.1,29.76,NW,323,2.0,3.0,92,0.01,,---,0.01,VWS V14.01,2013-06-24 18:12:00,
2013-06-24 10:13:00,54.5,51.9,29.76,NW,321,0.0,5.0,91,0.01,,---,0.01,VWS V14.01,2013-06-24 18:13:00,
2013-06-24 10:14:00,54.5,51.9,29.76,NW,321,3.0,5.0,91,0.01,,---,0.01,VWS V14.01,2013-06-24 18:14:00,
2013-06-24 10:15:00,54.6,52.3,29.76,NW,323,2.0,5.0,92,0.01,,---,0.01,VWS V14.01,2013-06-24 18:15:00,
2013-06-24 10:17:00,54.6,52.0,29.76,NW,324,1.0,4.0,91,0.01,,---,0.01,VWS V14.01,2013-06-24 18:17:00,
2013-06-24 10:19:00,54.7,52.1,29.76,NNW,336,4.0,7.0,91,0.01,,---,0.01,VWS V14.01,2013-06-24 18:19:00,
2013-06-24 10:20:00,54.6,52.0,29.76,NW,325,3.0,5.0,91,0.01,,---,0.01,VWS V14.01,2013-06-24 18:20:00,
2013-06-24 10:21:00,54.9,52.3,29.76,NNW,334,3.0,3.0,91,0.01,,---,0.01,VWS V14.01,2013-06-24 18:21:00,
2013-06-24 10:23:00,55.0,52.4,29.76,NNW,334,0.0,3.0,91,0.01,,---,0.01,VWS V14.01,2013-06-24 18:23:00,
2013-06-24 10:24:00,55.1,52.8,29.76,NNW,334,2.0,3.0,92,0.01,,---,0.01,VWS V14.01,2013-06-24 18:24:00,
2013-06-24 10:25:00,55.1,52.8,29.76,NNW,334,2.0,3.0,92,0.01,,---,0.01,VWS V14.01,2013-06-24 18:25:00,
2013-06-24 10:27:00,55.3,52.7,29.76,NNW,346,4.0,5.0,91,0.01,,---,0.01,VWS V14.01,2013-06-24 18:27:00,
2013-06-24 10:28:00,55.4,52.8,29.76,NNW,346,2.0,5.0,91,0.01,,---,0.01,VWS V14.01,2013-06-24 18:28:00,
2013-06-24 10:29:00,55.6,53.3,29.76,NNW,346,1.0,5.0,92,0.01,,---,0.01,VWS V14.01,2013-06-24 18:29:00,
2013-06-24 10:30:00,55.7,53.4,29.76,NNW,346,1.0,5.0,92,0.01,,---,0.01,VWS V14.01,2013-06-24 18:30:00,
2013-06-24 10:32:00,56.0,53.4,29.76,NNW,329,3.0,5.0,91,0.01,,---,0.01,VWS V14.01,2013-06-24 18:32:00,
2013-06-24 10:34:00,56.4,53.8,29.76,NW,326,2.0,5.0,91,0.01,,---,0.01,VWS V14.01,2013-06-24 18:34:00,
2013-06-24 10:35:00,55.9,53.6,29.76,NNW,336,4.0,6.0,92,0.01,,---,0.01,VWS V14.01,2013-06-24 18:35:00,
2013-06-24 10:36:00,56.6,54.0,29.76,NNW,333,6.0,7.0,91,0.01,,---,0.01,VWS V14.01,2013-06-24 18:36:00,
2013-06-24 10:37:00,56.7,54.1,29.76,NNW,333,3.0,7.0,91,0.01,,---,0.01,VWS V14.01,2013-06-24 18:37:00,
2013-06-24 10:39:00,57.0,54.1,29.76,NNW,342,3.0,7.0,90,0.01,,---,0.01,VWS V14.01,2013-06-24 18:39:00,
2013-06-24 10:40:00,57.1,54.2,29.76,NNW,340,6.0,7.0,90,0.01,,---,0.01,VWS V14.01,2013-06-24 18:40:00,
2013-06-24 10:41:00,57.2,54.3,29.76,NNW,342,5.0,6.0,90,0.00,,---,0.01,VWS V14.01,2013-06-24 18:41:00,
2013-06-24 10:43:00,57.4,54.2,29.76,NNW,340,5.0,8.0,89,0.00,,---,0.01,VWS V14.01,2013-06-24 18:43:00,
2013-06-24 10:45:00,57.6,54.4,29.76,NW,321,3.0,9.0,89,0.00,,---,0.01,VWS V14.01,2013-06-24 18:45:00,
2013-06-24 10:46:00,57.7,54.2,29.76,NNW,329,6.0,7.0,88,0.00,,---,0.01,VWS V14.01,2013-06-24 18:46:00,
2013-06-24 10:48:00,57.8,54.3,29.76,NW,311,2.0,7.0,88,0.00,,---,0.01,VWS V14.01,2013-06-24 18:48:00,
2013-06-24 10:50:00,58.0,54.5,29.76,NW,313,6.0,7.0,88,0.00,,---,0.01,VWS V14.01,2013-06-24 18:50:00,
2013-06-24 10:51:00,58.2,54.4,29.76,NW,309,5.0,6.0,87,0.00,,---,0.01,VWS V14.01,2013-06-24 18:51:00,
2013-06-24 10:53:00,58.3,54.1,29.76,NW,325,7.0,8.0,86,0.00,,---,0.01,VWS V14.01,2013-06-24 18:53:00,
2013-06-24 10:55:00,58.6,54.4,29.76,WNW,294,4.0,8.0,86,0.00,,---,0.01,VWS V14.01,2013-06-24 18:55:00,
2013-06-24 10:57:00,58.7,54.5,29.76,NW,321,8.0,8.0,86,0.00,,---,0.01,VWS V14.01,2013-06-24 18:57:00,
2013-06-24 11:00:00,59.3,55.4,29.76,NW,305,4.0,8.0,87,0.00,,---,0.01,VWS V14.01,2013-06-24 19:00:00,
2013-06-24 11:01:00,59.4,55.2,29.76,NW,317,7.0,8.0,86,0.00,,---,0.01,VWS V14.01,2013-06-24 19:01:00,
2013-06-24 11:02:00,59.6,55.4,29.76,NW,315,2.0,4.0,86,0.00,,---,0.01,VWS V14.01,2013-06-24 19:02:00,
2013-06-24 11:05:00,60.0,55.5,29.76,NW,319,0.0,6.0,85,0.00,,---,0.01,VWS V14.01,2013-06-24 19:05:00,
2013-06-24 11:06:00,60.1,55.6,29.76,WNW,298,5.0,6.0,85,0.00,,---,0.01,VWS V14.01,2013-06-24 19:06:00,
2013-06-24 11:07:00,60.3,55.8,29.76,NW,316,2.0,3.0,85,0.00,,---,0.01,VWS V14.01,2013-06-24 19:07:00,
2013-06-24 11:10:00,60.8,56.3,29.76,NW,310,3.0,5.0,85,0.00,,---,0.01,VWS V14.01,2013-06-24 19:10:00,
2013-06-24 11:11:00,60.9,56.4,29.76,NW,314,5.0,5.0,85,0.00,,---,0.01,VWS V14.01,2013-06-24 19:11:00,
2013-06-24 11:12:00,61.0,55.8,29.76,NW,322,3.0,5.0,83,0.00,,---,0.01,VWS V14.01,2013-06-24 19:12:00,
2013-06-24 11:15:00,61.4,56.2,29.76,NW,316,2.0,5.0,83,0.00,,---,0.01,VWS V14.01,2013-06-24 19:15:00,
2013-06-24 11:16:00,61.4,56.2,29.76,NW,316,3.0,5.0,83,0.00,,---,0.01,VWS V14.01,2013-06-24 19:16:00,
2013-06-24 11:19:00,61.7,56.2,29.76,NW,316,2.0,4.0,82,0.00,,---,0.01,VWS V14.01,2013-06-24 19:19:00,
2013-06-24 11:20:00,61.5,56.6,29.76,NW,316,3.0,5.0,84,0.00,,---,0.01,VWS V14.01,2013-06-24 19:20:00,
2013-06-24 11:21:00,61.9,56.0,29.76,NW,311,4.0,4.0,81,0.00,,---,0.01,VWS V14.01,2013-06-24 19:21:00,
2013-06-24 11:24:00,62.1,55.9,29.76,NW,323,4.0,6.0,80,0.00,,---,0.01,VWS V14.01,2013-06-24 19:24:00,
2013-06-24 11:25:00,61.9,56.0,29.76,NW,313,6.0,6.0,81,0.00,,---,0.01,VWS V14.01,2013-06-24 19:25:00,
2013-06-24 11:26:00,62.2,56.0,29.76,NNW,333,3.0,6.0,80,0.00,,---,0.01,VWS V14.01,2013-06-24 19:26:00,
2013-06-24 11:29:00,62.2,56.3,29.76,NNW,333,1.0,5.0,81,0.00,,---,0.01,VWS V14.01,2013-06-24 19:29:00,
2013-06-24 11:30:00,62.1,55.9,29.76,NNW,333,4.0,6.0,80,0.00,,---,0.01,VWS V14.01,2013-06-24 19:30:00,
2013-06-24 11:31:00,62.2,56.0,29.76,NW,325,4.0,6.0,80,0.00,,---,0.01,VWS V14.01,2013-06-24 19:31:00,
2013-06-24 11:32:00,62.2,55.6,29.76,NW,323,2.0,4.0,79,0.00,,---,0.01,VWS V14.01,2013-06-24 19:32:00,
2013-06-24 11:34:00,62.2,55.6,29.76,NNW,340,3.0,5.0,79,0.00,,---,0.01,VWS V14.01,2013-06-24 19:34:00,
2013-06-24 11:35:00,62.2,56.0,29.76,NW,325,3.0,6.0,80,0.00,,---,0.01,VWS V14.01,2013-06-24 19:35:00,
2013-06-24 11:36:00,62.3,56.1,29.76,NNW,335,3.0,3.0,80,0.00,,---,0.01,VWS V14.01,2013-06-24 19:36:00,
2013-06-24 11:37:00,62.3,56.1,29.76,NW,320,4.0,4.0,80,0.00,,---,0.01,VWS V14.01,2013-06-24 19:37:00,
2013-06-24 11:39:00,62.5,56.2,29.76,NW,321,3.0,4.0,80,0.00,,---,0.01,VWS V14.01,2013-06-24 19:39:00,
2013-06-24 11:40:00,62.3,55.7,29.76,NNW,335,2.0,5.0,79,0.00,,---,0.01,VWS V14.01,2013-06-24 19:40:00,
2013-06-24 11:42:00,62.7,56.1,29.76,NNW,340,3.0,4.0,79,0.00,,---,0.01,VWS V14.01,2013-06-24 19:42:00,
2013-06-24 11:44:00,62.9,56.3,29.76,North,350,3.0,5.0,79,0.00,,---,0.01,VWS V14.01,2013-06-24 19:44:00,
2013-06-24 11:45:00,62.6,56.0,29.76,NW,321,2.0,4.0,79,0.00,,---,0.01,VWS V14.01,2013-06-24 19:45:00,
2013-06-24 11:47:00,63.0,56.0,29.76,North,350,3.0,5.0,78,0.00,,---,0.01,VWS V14.01,2013-06-24 19:47:00,
2013-06-24 11:48:00,63.1,55.8,29.76,North,350,0.0,5.0,77,0.00,,---,0.01,VWS V14.01,2013-06-24 19:48:00,
2013-06-24 11:50:00,63.2,55.9,29.76,North,350,1.0,5.0,77,0.00,,---,0.01,VWS V14.01,2013-06-24 19:50:00,
2013-06-24 11:52:00,63.4,55.7,29.76,NNW,342,0.0,4.0,76,0.00,,---,0.01,VWS V14.01,2013-06-24 19:52:00,
2013-06-24 11:53:00,63.6,55.5,29.76,NNW,341,0.0,4.0,75,0.00,,---,0.01,VWS V14.01,2013-06-24 19:53:00,
2013-06-24 11:55:00,63.8,55.7,29.76,WNW,296,0.0,5.0,75,0.00,,---,0.01,VWS V14.01,2013-06-24 19:55:00,
2013-06-24 12:00:00,63.9,56.2,29.76,WNW,296,0.0,5.0,76,0.00,,---,0.01,VWS V14.01,2013-06-24 20:00:00,
2013-06-24 12:05:00,64.7,56.2,29.76,WNW,282,0.0,4.0,74,0.00,,---,0.01,VWS V14.01,2013-06-24 20:05:00,
2013-06-24 12:10:00,65.3,55.3,29.76,NW,311,0.0,5.0,70,0.00,,---,0.01,VWS V14.01,2013-06-24 20:10:00,
2013-06-24 12:11:00,65.9,57.4,29.76,NW,311,0.0,0.0,74,0.00,,---,0.01,VWS V14.01,2013-06-24 20:11:00,
2013-06-24 12:12:00,66.0,57.5,29.76,NW,311,1.0,2.0,74,0.00,,---,0.01,VWS V14.01,2013-06-24 20:12:00,
2013-06-24 12:15:00,65.9,56.6,29.76,NW,311,0.0,4.0,72,0.00,,---,0.01,VWS V14.01,2013-06-24 20:15:00,
2013-06-24 12:16:00,66.5,56.4,29.76,NW,311,0.0,2.0,70,0.00,,---,0.01,VWS V14.01,2013-06-24 20:16:00,
2013-06-24 12:17:00,66.5,56.4,29.76,NW,311,2.0,3.0,70,0.00,,---,0.01,VWS V14.01,2013-06-24 20:17:00,
2013-06-24 12:20:00,66.5,56.4,29.76,NW,311,1.0,4.0,70,0.00,,---,0.01,VWS V14.01,2013-06-24 20:20:00,
2013-06-24 12:22:00,66.8,55.9,29.76,NW,311,2.0,3.0,68,0.00,,---,0.01,VWS V14.01,2013-06-24 20:22:00,
2013-06-24 12:23:00,67.0,56.1,29.76,NW,311,0.0,3.0,68,0.00,,---,0.01,VWS V14.01,2013-06-24 20:23:00,
2013-06-24 12:25:00,66.9,56.0,29.76,NW,311,0.0,4.0,68,0.00,,---,0.01,VWS V14.01,2013-06-24 20:25:00,
2013-06-24 12:28:00,67.4,57.7,29.76,NW,311,0.0,2.0,71,0.00,,---,0.01,VWS V14.01,2013-06-24 20:28:00,
2013-06-24 12:29:00,67.6,57.1,29.76,NW,311,2.0,2.0,69,0.00,,---,0.01,VWS V14.01,2013-06-24 20:29:00,
2013-06-24 12:30:00,67.2,57.1,29.76,NW,311,0.0,3.0,70,0.00,,---,0.01,VWS V14.01,2013-06-24 20:30:00,
2013-06-24 12:33:00,68.1,56.7,29.76,NW,311,0.0,4.0,67,0.00,,---,0.01,VWS V14.01,2013-06-24 20:33:00,
2013-06-24 12:34:00,68.1,56.7,29.76,NW,311,3.0,4.0,67,0.00,,---,0.01,VWS V14.01,2013-06-24 20:34:00,
2013-06-24 12:35:00,68.2,56.4,29.75,NW,311,2.0,4.0,66,0.00,,---,0.01,VWS V14.01,2013-06-24 20:35:00,
2013-06-24 12:39:00,68.3,56.1,29.75,NW,311,0.0,3.0,65,0.00,,---,0.01,VWS V14.01,2013-06-24 20:39:00,
2013-06-24 12:40:00,68.4,55.8,29.75,NW,310,0.0,3.0,64,0.00,,---,0.01,VWS V14.01,2013-06-24 20:40:00,
2013-06-24 12:44:00,68.9,57.5,29.75,NW,309,1.0,4.0,67,0.00,,---,0.01,VWS V14.01,2013-06-24 20:44:00,
2013-06-24 12:45:00,69.0,57.6,29.75,NW,309,0.0,4.0,67,0.00,,---,0.01,VWS V14.01,2013-06-24 20:45:00,
2013-06-24 12:46:00,69.1,57.3,29.75,West,263,2.0,4.0,66,0.00,,---,0.01,VWS V14.01,2013-06-24 20:46:00,
2013-06-24 12:49:00,69.6,57.8,29.75,West,270,0.0,2.0,66,0.00,,---,0.01,VWS V14.01,2013-06-24 20:49:00,
2013-06-24 12:50:00,69.2,57.4,29.75,West,262,1.0,4.0,66,0.00,,---,0.01,VWS V14.01,2013-06-24 20:50:00,
2013-06-24 12:51:00,69.9,57.6,29.75,West,270,3.0,3.0,65,0.00,,---,0.01,VWS V14.01,2013-06-24 20:51:00,
2013-06-24 12:54:00,70.4,58.9,29.75,West,277,0.0,4.0,67,0.00,,---,0.01,VWS V14.01,2013-06-24 20:54:00,
2013-06-24 12:55:00,69.9,57.6,29.75,West,270,2.0,3.0,65,0.00,,---,0.01,VWS V14.01,2013-06-24 20:55:00,
2013-06-24 12:56:00,70.7,57.1,29.75,WNW,291,1.0,2.0,62,0.00,,---,0.01,VWS V14.01,2013-06-24 20:56:00,
2013-06-24 12:57:00,70.7,56.2,29.75,WNW,291,1.0,2.0,60,0.00,,---,0.01,VWS V14.01,2013-06-24 20:57:00,
2013-06-24 12:59:00,70.9,57.2,29.75,WNW,288,0.0,2.0,62,0.00,,---,0.01,VWS V14.01,2013-06-24 20:59:00,
2013-06-24 13:00:00,70.7,57.1,29.75,WNW,290,2.0,4.0,62,0.00,,---,0.01,VWS V14.01,2013-06-24 21:00:00,
2013-06-24 13:02:00,71.1,57.0,29.75,WNW,286,0.0,2.0,61,0.00,,---,0.01,VWS V14.01,2013-06-24 21:02:00,
2013-06-24 13:05:00,71.3,55.3,29.75,WNW,287,2.0,4.0,57,0.00,,---,0.01,VWS V14.01,2013-06-24 21:05:00,
2013-06-24 13:07:00,71.3,56.2,29.75,WNW,285,0.0,3.0,59,0.00,,---,0.01,VWS V14.01,2013-06-24 21:07:00,
2013-06-24 13:10:00,71.4,57.3,29.75,West,279,2.0,5.0,61,0.00,,---,0.01,VWS V14.01,2013-06-24 21:10:00,
2013-06-24 13:11:00,71.5,56.0,29.74,West,278,2.0,2.0,58,0.00,,---,0.01,VWS V14.01,2013-06-24 21:11:00,
2013-06-24 13:13:00,71.6,57.0,29.75,West,278,2.0,4.0,60,0.00,,---,0.01,VWS V14.01,2013-06-24 21:13:00,
2013-06-24 13:14:00,71.7,56.2,29.74,NW,304,0.0,5.0,58,0.00,,---,0.01,VWS V14.01,2013-06-24 21:14:00,
2013-06-24 13:15:00,71.8,56.2,29.75,WNW,303,0.0,5.0,58,0.00,,---,0.01,VWS V14.01,2013-06-24 21:15:00,
2013-06-24 13:17:00,71.9,55.9,29.75,WNW,303,0.0,1.0,57,0.00,,---,0.01,VWS V14.01,2013-06-24 21:17:00,
2013-06-24 13:19:00,72.0,54.0,29.75,NW,311,2.0,5.0,53,0.00,,---,0.01,VWS V14.01,2013-06-24 21:19:00,
2013-06-24 13:20:00,71.9,54.4,29.75,NW,311,3.0,5.0,54,0.00,,---,0.01,VWS V14.01,2013-06-24 21:20:00,
2013-06-24 13:22:00,71.7,53.2,29.74,NW,325,5.0,5.0,52,0.00,,---,0.01,VWS V14.01,2013-06-24 21:22:00,
2013-06-24 13:24:00,71.3,52.8,29.75,NW,317,0.0,6.0,52,0.00,,---,0.01,VWS V14.01,2013-06-24 21:24:00,
2013-06-24 13:25:00,71.3,54.8,29.75,NW,317,0.0,6.0,56,0.00,,---,0.01,VWS V14.01,2013-06-24 21:25:00,
2013-06-24 13:26:00,71.3,54.3,29.75,NW,316,0.0,0.0,55,0.00,,---,0.01,VWS V14.01,2013-06-24 21:26:00,
2013-06-24 13:27:00,71.3,54.3,29.75,NW,316,1.0,3.0,55,0.00,,---,0.01,VWS V14.01,2013-06-24 21:27:00,
2013-06-24 13:30:00,71.5,54.5,29.75,NW,316,0.0,3.0,55,0.00,,---,0.01,VWS V14.01,2013-06-24 21:30:00,
2013-06-24 13:31:00,71.5,56.4,29.75,WSW,255,2.0,4.0,59,0.00,,---,0.01,VWS V14.01,2013-06-24 21:31:00,
2013-06-24 13:32:00,71.7,56.2,29.75,West,267,0.0,2.0,58,0.00,,---,0.01,VWS V14.01,2013-06-24 21:32:00,
2013-06-24 13:35:00,72.0,54.5,29.75,West,275,0.0,4.0,54,0.00,,---,0.01,VWS V14.01,2013-06-24 21:35:00,
2013-06-24 13:36:00,72.0,55.0,29.75,West,275,0.0,4.0,55,0.00,,---,0.01,VWS V14.01,2013-06-24 21:36:00,
2013-06-24 13:37:00,72.1,54.6,29.75,West,275,0.0,0.0,54,0.00,,---,0.01,VWS V14.01,2013-06-24 21:37:00,
2013-06-24 13:40:00,72.3,55.2,29.74,West,279,1.0,3.0,55,0.00,,---,0.01,VWS V14.01,2013-06-24 21:40:00,
2013-06-24 13:41:00,72.4,54.3,29.74,West,280,0.0,0.0,53,0.00,,---,0.01,VWS V14.01,2013-06-24 21:41:00,
2013-06-24 13:42:00,72.4,54.8,29.74,West,279,0.0,1.0,54,0.00,,---,0.01,VWS V14.01,2013-06-24 21:42:00,
2013-06-24 13:45:00,72.8,55.2,29.74,West,279,0.0,2.0,54,0.00,,---,0.01,VWS V14.01,2013-06-24 21:45:00,
2013-06-24 13:46:00,72.9,54.3,29.74,West,279,0.0,0.0,52,0.00,,---,0.01,VWS V14.01,2013-06-24 21:46:00,
2013-06-24 13:47:00,73.1,53.9,29.74,West,279,0.0,0.0,51,0.00,,---,0.01,VWS V14.01,2013-06-24 21:47:00,
2013-06-24 13:50:00,73.4,53.7,29.74,West,279,0.0,3.0,50,0.00,,---,0.01,VWS V14.01,2013-06-24 21:50:00,
2013-06-24 13:51:00,73.6,54.4,29.74,West,279,0.0,0.0,51,0.00,,---,0.01,VWS V14.01,2013-06-24 21:51:00,
2013-06-24 13:52:00,73.7,53.9,29.74,West,279,0.0,0.0,50,0.00,,---,0.01,VWS V14.01,2013-06-24 21:52:00,
2013-06-24 13:54:00,73.8,54.6,29.74,WNW,295,1.0,4.0,51,0.00,,---,0.01,VWS V14.01,2013-06-24 21:54:00,
2013-06-24 13:55:00,73.8,52.9,29.74,WNW,295,0.0,4.0,48,0.00,,---,0.01,VWS V14.01,2013-06-24 21:55:00,
2013-06-24 13:57:00,73.8,53.5,29.74,WNW,295,0.0,0.0,49,0.00,,---,0.01,VWS V14.01,2013-06-24 21:57:00,
2013-06-24 13:58:00,73.8,53.5,29.74,WNW,295,0.0,0.0,49,0.00,,---,0.01,VWS V14.01,2013-06-24 21:58:00,
2013-06-24 13:59:00,73.9,53.0,29.74,WNW,295,0.0,0.0,48,0.00,,---,0.01,VWS V14.01,2013-06-24 21:59:00,
2013-06-24 14:00:00,73.8,52.3,29.74,WNW,295,0.0,4.0,47,0.00,,---,0.01,VWS V14.01,2013-06-24 22:00:00,
2013-06-24 14:01:00,74.0,51.9,29.74,WNW,295,0.0,0.0,46,0.00,,---,0.01,VWS V14.01,2013-06-24 22:01:00,
2013-06-24 14:03:00,74.1,54.3,29.74,WNW,285,0.0,3.0,50,0.00,,---,0.01,VWS V14.01,2013-06-24 22:03:00,
2013-06-24 14:05:00,74.4,54.6,29.74,WNW,285,0.0,3.0,50,0.00,,---,0.01,VWS V14.01,2013-06-24 22:05:00,
2013-06-24 14:06:00,74.5,54.1,29.74,WNW,284,0.0,1.0,49,0.00,,---,0.01,VWS V14.01,2013-06-24 22:06:00,
2013-06-24 14:08:00,74.8,54.4,29.73,SSW,196,0.0,1.0,49,0.00,,---,0.01,VWS V14.01,2013-06-24 22:08:00,
2013-06-24 14:09:00,74.8,54.9,29.73,SSW,196,0.0,1.0,50,0.00,,---,0.01,VWS V14.01,2013-06-24 22:09:00,
2013-06-24 14:10:00,74.5,54.1,29.74,WNW,285,1.0,3.0,49,0.00,,---,0.01,VWS V14.01,2013-06-24 22:10:00,
2013-06-24 14:11:00,75.1,55.8,29.73,West,261,0.0,5.0,51,0.00,,---,0.01,VWS V14.01,2013-06-24 22:11:00,
2013-06-24 14:13:00,75.4,56.6,29.73,WSW,241,1.0,5.0,52,0.00,,---,0.01,VWS V14.01,2013-06-24 22:13:00,
2013-06-24 14:14:00,75.4,55.5,29.74,West,266,0.0,5.0,50,0.00,,---,0.01,VWS V14.01,2013-06-24 22:14:00,
2013-06-24 14:15:00,75.2,55.8,29.73,NW,319,5.0,5.0,51,0.00,,---,0.01,VWS V14.01,2013-06-24 22:15:00,
2013-06-24 14:16:00,75.6,53.4,29.73,WSW,248,0.0,5.0,46,0.00,,---,0.01,VWS V14.01,2013-06-24 22:16:00,
2013-06-24 14:18:00,75.7,54.1,29.73,WSW,252,0.0,3.0,47,0.00,,---,0.01,VWS V14.01,2013-06-24 22:18:00,
2013-06-24 14:19:00,75.7,53.5,29.73,WSW,252,0.0,3.0,46,0.00,,---,0.01,VWS V14.01,2013-06-24 22:19:00,
2013-06-24 14:20:00,75.6,53.4,29.73,WSW,248,0.0,5.0,46,0.00,,---,0.01,VWS V14.01,2013-06-24 22:20:00,
2013-06-24 14:21:00,75.7,53.5,29.73,SW,215,0.0,0.0,46,0.00,,---,0.01,VWS V14.01,2013-06-24 22:21:00,
2013-06-24 14:23:00,75.7,53.5,29.73,SW,215,0.0,0.0,46,0.00,,---,0.01,VWS V14.01,2013-06-24 22:23:00,
2013-06-24 14:24:00,75.7,55.2,29.73,SW,215,2.0,2.0,49,0.00,,---,0.01,VWS V14.01,2013-06-24 22:24:00,
2013-06-24 14:25:00,75.7,54.1,29.73,SW,215,0.0,2.0,47,0.00,,---,0.01,VWS V14.01,2013-06-24 22:25:00,
2013-06-24 14:26:00,75.7,54.1,29.73,SW,230,0.0,0.0,47,0.00,,---,0.01,VWS V14.01,2013-06-24 22:26:00,
2013-06-24 14:29:00,75.6,52.8,29.73,NW,307,1.0,3.0,45,0.00,,---,0.01,VWS V14.01,2013-06-24 22:29:00,
2013-06-24 14:30:00,75.5,53.9,29.73,NW,307,0.0,3.0,47,0.00,,---,0.01,VWS V14.01,2013-06-24 22:30:00,
2013-06-24 14:31:00,75.5,52.7,29.73,NW,307,0.0,0.0,45,0.00,,---,0.01,VWS V14.01,2013-06-24 22:31:00,
2013-06-24 14:34:00,75.5,54.5,29.73,NW,307,0.0,0.0,48,0.00,,---,0.01,VWS V14.01,2013-06-24 22:34:00,
2013-06-24 14:35:00,75.6,54.5,29.73,NW,307,0.0,0.0,48,0.00,,---,0.01,VWS V14.01,2013-06-24 22:35:00,
2013-06-24 14:37:00,75.6,53.4,29.73,WNW,292,4.0,4.0,46,0.00,,---,0.01,VWS V14.01,2013-06-24 22:37:00,
2013-06-24 14:39:00,75.6,54.5,29.73,WNW,296,5.0,5.0,48,0.00,,---,0.01,VWS V14.01,2013-06-24 22:39:00,
2013-06-24 14:40:00,75.6,52.8,29.73,NW,317,3.0,5.0,45,0.00,,---,0.01,VWS V14.01,2013-06-24 22:40:00,
2013-06-24 14:42:00,75.5,55.6,29.73,WNW,302,0.0,2.0,50,0.00,,---,0.01,VWS V14.01,2013-06-24 22:42:00,
2013-06-24 14:45:00,75.7,54.6,29.73,West,261,0.0,2.0,48,0.00,,---,0.01,VWS V14.01,2013-06-24 22:45:00,
2013-06-24 14:46:00,75.7,55.8,29.73,WSW,255,1.0,2.0,50,0.00,,---,0.01,VWS V14.01,2013-06-24 22:46:00,
2013-06-24 14:47:00,75.8,55.3,29.73,WSW,255,0.0,0.0,49,0.00,,---,0.01,VWS V14.01,2013-06-24 22:47:00,
2013-06-24 14:50:00,75.8,54.7,29.73,WSW,255,0.0,1.0,48,0.00,,---,0.01,VWS V14.01,2013-06-24 22:50:00,
2013-06-24 14:51:00,75.8,54.2,29.73,WSW,257,1.0,1.0,47,0.00,,---,0.01,VWS V14.01,2013-06-24 22:51:00,
2013-06-24 14:52:00,75.7,52.9,29.73,West,281,2.0,3.0,45,0.00,,---,0.01,VWS V14.01,2013-06-24 22:52:00,
2013-06-24 14:55:00,75.8,53.6,29.73,WSW,257,0.0,1.0,46,0.00,,---,0.01,VWS V14.01,2013-06-24 22:55:00,
2013-06-24 14:56:00,75.0,52.8,29.73,WNW,298,0.0,3.0,46,0.00,,---,0.01,VWS V14.01,2013-06-24 22:56:00,
2013-06-24 14:58:00,74.6,51.9,29.73,NW,306,1.0,3.0,45,0.00,,---,0.01,VWS V14.01,2013-06-24 22:58:00,
2013-06-24 15:00:00,74.9,52.8,29.73,NW,306,3.0,3.0,46,0.00,,---,0.01,VWS V14.01,2013-06-24 23:00:00,
2013-06-24 15:01:00,74.2,52.7,29.73,West,278,2.0,5.0,47,0.00,,---,0.01,VWS V14.01,2013-06-24 23:01:00,
2013-06-24 15:02:00,74.0,51.9,29.73,WNW,285,0.0,5.0,46,0.00,,---,0.01,VWS V14.01,2013-06-24 23:02:00,
2013-06-24 15:03:00,73.8,51.2,29.73,NNW,327,0.0,5.0,45,0.00,,---,0.01,VWS V14.01,2013-06-24 23:03:00,
2013-06-24 15:05:00,74.2,52.7,29.73,West,278,2.0,5.0,47,0.00,,---,0.01,VWS V14.01,2013-06-24 23:05:00,
2013-06-24 15:07:00,73.6,51.0,29.73,NNW,329,1.0,5.0,45,0.00,,---,0.01,VWS V14.01,2013-06-24 23:07:00,
2013-06-24 15:10:00,73.5,50.3,29.73,North,5,2.0,7.0,44,0.00,,---,0.01,VWS V14.01,2013-06-24 23:10:00,
2013-06-24 15:12:00,73.6,52.7,29.73,NW,307,0.0,4.0,48,0.00,,---,0.01,VWS V14.01,2013-06-24 23:12:00,
2013-06-24 15:15:00,73.8,50.5,29.73,NNW,337,7.0,9.0,44,0.00,,---,0.01,VWS V14.01,2013-06-24 23:15:00,
2013-06-24 15:17:00,73.7,52.2,29.73,North,5,0.0,3.0,47,0.00,,---,0.01,VWS V14.01,2013-06-24 23:17:00,
2013-06-24 15:20:00,73.7,51.1,29.73,NNE,17,1.0,9.0,45,0.00,,---,0.01,VWS V14.01,2013-06-24 23:20:00,
2013-06-24 15:21:00,73.9,51.8,29.73,NNW,338,7.0,9.0,46,0.00,,---,0.01,VWS V14.01,2013-06-24 23:21:00,
2013-06-24 15:22:00,73.9,51.8,29.73,North,355,5.0,9.0,46,0.00,,---,0.01,VWS V14.01,2013-06-24 23:22:00,
2013-06-24 15:23:00,73.9,50.6,29.73,North,5,5.0,9.0,44,0.00,,---,0.01,VWS V14.01,2013-06-24 23:23:00,
2013-06-24 15:25:00,73.9,51.8,29.73,North,350,9.0,10.0,46,0.00,,---,0.01,VWS V14.01,2013-06-24 23:25:00,
2013-06-24 15:27:00,73.6,52.2,29.73,NNW,329,3.0,6.0,47,0.00,,---,0.01,VWS V14.01,2013-06-24 23:27:00,
2013-06-24 15:28:00,73.6,52.2,29.73,NW,319,5.0,6.0,47,0.00,,---,0.01,VWS V14.01,2013-06-24 23:28:00,
2013-06-24 15:30:00,73.7,51.7,29.73,NNE,24,5.0,9.0,46,0.00,,---,0.01,VWS V14.01,2013-06-24 23:30:00,
2013-06-24 15:32:00,73.4,50.8,29.73,NNE,19,2.0,6.0,45,0.00,,---,0.01,VWS V14.01,2013-06-24 23:32:00,
2013-06-24 15:33:00,73.4,50.2,29.73,NNE,20,3.0,7.0,44,0.00,,---,0.01,VWS V14.01,2013-06-24 23:33:00,
2013-06-24 15:35:00,73.4,50.2,29.73,East,82,0.0,7.0,44,0.00,,---,0.01,VWS V14.01,2013-06-24 23:35:00,
2013-06-24 15:37:00,73.6,51.0,29.73,North,9,6.0,10.0,45,0.00,,---,0.01,VWS V14.01,2013-06-24 23:37:00,
2013-06-24 15:38:00,73.7,51.1,29.73,NNE,13,4.0,10.0,45,0.00,,---,0.01,VWS V14.01,2013-06-24 23:38:00,
2013-06-24 15:39:00,73.9,50.0,29.73,NE,46,1.0,10.0,43,0.00,,---,0.01,VWS V14.01,2013-06-24 23:39:00,
2013-06-24 15:40:00,74.0,49.5,29.73,ENE,77,6.0,10.0,42,0.00,,---,0.01,VWS V14.01,2013-06-24 23:40:00,
2013-06-24 15:42:00,74.2,49.7,29.73,East,82,1.0,2.0,42,0.00,,---,0.01,VWS V14.01,2013-06-24 23:42:00,
2013-06-24 15:43:00,74.2,49.7,29.73,ENE,59,3.0,3.0,42,0.00,,---,0.01,VWS V14.01,2013-06-24 23:43:00,
2013-06-24 15:44:00,74.3,50.4,29.73,NNE,26,6.0,11.0,43,0.00,,---,0.01,VWS V14.01,2013-06-24 23:44:00,
2013-06-24 15:45:00,74.1,50.2,29.73,ENE,65,1.0,10.0,43,0.00,,---,0.01,VWS V14.01,2013-06-24 23:45:00,
2013-06-24 15:46:00,74.4,49.2,29.73,NE,36,3.0,11.0,41,0.00,,---,0.01,VWS V14.01,2013-06-24 23:46:00,
2013-06-24 15:47:00,74.5,50.6,29.73,NNE,14,6.0,6.0,43,0.00,,---,0.01,VWS V14.01,2013-06-24 23:47:00,
2013-06-24 15:48:00,74.6,50.7,29.73,NNE,30,6.0,8.0,43,0.00,,---,0.01,VWS V14.01,2013-06-24 23:48:00,
2013-06-24 15:50:00,74.7,51.4,29.73,NNE,24,7.0,10.0,44,0.00,,---,0.01,VWS V14.01,2013-06-24 23:50:00,
2013-06-24 15:51:00,74.7,50.1,29.73,North,360,7.0,10.0,42,0.00,,---,0.01,VWS V14.01,2013-06-24 23:51:00,
2013-06-24 15:53:00,74.8,50.8,29.73,NE,41,0.0,7.0,43,0.00,,---,0.01,VWS V14.01,2013-06-24 23:53:00,
2013-06-24 15:54:00,74.8,50.8,29.73,ENE,57,0.0,7.0,43,0.00,,---,0.01,VWS V14.01,2013-06-24 23:54:00,
2013-06-24 15:55:00,74.9,50.9,29.73,ENE,57,5.0,7.0,43,0.00,,---,0.01,VWS V14.01,2013-06-24 23:55:00,
2013-06-24 15:56:00,75.0,50.4,29.73,NE,55,0.0,7.0,42,0.00,,---,0.01,VWS V14.01,2013-06-24 23:56:00,
2013-06-24 15:59:00,75.3,51.3,29.73,West,274,0.0,2.0,43,0.00,,---,0.01,VWS V14.01,2013-06-24 23:59:00,
2013-06-24 16:00:00,75.4,50.7,29.73,West,281,0.0,2.0,42,0.00,,---,0.01,VWS V14.01,2013-06-25 00:00:00,
2013-06-24 16:01:00,75.5,50.2,29.73,West,281,0.0,0.0,41,0.00,,---,0.01,VWS V14.01,2013-06-25 00:01:00,
2013-06-24 16:04:00,75.7,50.4,29.73,West,281,0.0,0.0,41,0.00,,---,0.01,VWS V14.01,2013-06-25 00:04:00,
2013-06-24 16:05:00,75.7,49.7,29.73,West,281,0.0,0.0,40,0.00,,---,0.01,VWS V14.01,2013-06-25 00:05:00,
2013-06-24 16:07:00,76.0,51.9,29.73,SW,221,0.0,0.0,43,0.00,,---,0.01,VWS V14.01,2013-06-25 00:07:00,
2013-06-24 16:09:00,76.3,50.2,29.72,SE,133,0.0,5.0,40,0.00,,---,0.01,VWS V14.01,2013-06-25 00:09:00,
2013-06-24 16:10:00,75.8,50.5,29.73,SW,221,0.0,2.0,41,0.00,,---,0.01,VWS V14.01,2013-06-25 00:10:00,
2013-06-24 16:11:00,76.4,49.6,29.72,SE,133,0.0,5.0,39,0.00,,---,0.01,VWS V14.01,2013-06-25 00:11:00,
2013-06-24 16:12:00,76.5,50.4,29.72,SE,133,0.0,0.0,40,0.00,,---,0.01,VWS V14.01,2013-06-25 00:12:00,
2013-06-24 16:15:00,76.5,50.4,29.73,SE,129,0.0,5.0,40,0.00,,---,0.01,VWS V14.01,2013-06-25 00:15:00,
2013-06-24 16:16:00,76.5,49.7,29.73,SE,128,0.0,5.0,39,0.00,,---,0.01,VWS V14.01,2013-06-25 00:16:00,
2013-06-24 16:17:00,76.4,50.3,29.72,SE,128,4.0,4.0,40,0.00,,---,0.01,VWS V14.01,2013-06-25 00:17:00,
2013-06-24 16:20:00,76.2,50.1,29.72,North,5,4.0,6.0,40,0.00,,---,0.01,VWS V14.01,2013-06-25 00:20:00,
2013-06-24 16:21:00,76.1,50.0,29.73,North,5,3.0,6.0,40,0.00,,---,0.01,VWS V14.01,2013-06-25 00:21:00,
2013-06-24 16:22:00,76.0,50.6,29.73,North,355,0.0,3.0,41,0.00,,---,0.01,VWS V14.01,2013-06-25 00:22:00,
2013-06-24 16:25:00,76.0,50.0,29.73,NNE,15,0.0,3.0,40,0.00,,---,0.01,VWS V14.01,2013-06-25 00:25:00,
2013-06-24 16:26:00,76.1,50.0,29.72,NNE,15,0.0,0.0,40,0.00,,---,0.01,VWS V14.01,2013-06-25 00:26:00,
2013-06-24 16:28:00,76.3,50.2,29.72,ESE,105,4.0,5.0,40,0.00,,---,0.01,VWS V14.01,2013-06-25 00:28:00,
2013-06-24 16:30:00,76.1,50.0,29.73,NNE,15,0.0,3.0,40,0.00,,---,0.01,VWS V14.01,2013-06-25 00:30:00,
2013-06-24 16:31:00,76.5,51.1,29.72,SSE,163,0.0,0.0,41,0.00,,---,0.01,VWS V14.01,2013-06-25 00:31:00,
2013-06-24 16:32:00,76.4,51.0,29.72,SSE,163,0.0,0.0,41,0.00,,---,0.01,VWS V14.01,2013-06-25 00:32:00,
2013-06-24 16:33:00,76.4,50.3,29.72,SE,143,4.0,4.0,40,0.00,,---,0.01,VWS V14.01,2013-06-25 00:33:00,
2013-06-24 16:34:00,76.3,49.5,29.72,ENE,67,1.0,6.0,39,0.00,,---,0.01,VWS V14.01,2013-06-25 00:34:00,
2013-06-24 16:35:00,76.5,51.1,29.72,SSE,163,0.0,5.0,41,0.00,,---,0.01,VWS V14.01,2013-06-25 00:35:00,
2013-06-24 16:36:00,76.0,49.3,29.72,ENE,57,2.0,2.0,39,0.00,,---,0.01,VWS V14.01,2013-06-25 00:36:00,
2013-06-24 16:38:00,75.7,49.0,29.72,ENE,57,0.0,3.0,39,0.00,,---,0.01,VWS V14.01,2013-06-25 00:38:00,
2013-06-24 16:39:00,75.6,48.9,29.72,ENE,57,0.0,3.0,39,0.00,,---,0.01,VWS V14.01,2013-06-25 00:39:00,
2013-06-24 16:40:00,76.0,49.3,29.72,ENE,57,2.0,6.0,39,0.00,,---,0.01,VWS V14.01,2013-06-25 00:40:00,
2013-06-24 16:41:00,75.6,48.9,29.72,ENE,57,0.0,0.0,39,0.00,,---,0.01,VWS V14.01,2013-06-25 00:41:00,
2013-06-24 16:43:00,75.7,49.0,29.72,ENE,57,0.0,0.0,39,0.00,,---,0.01,VWS V14.01,2013-06-25 00:43:00,
2013-06-24 16:44:00,75.7,49.7,29.72,ENE,57,0.0,0.0,40,0.00,,---,0.01,VWS V14.01,2013-06-25 00:44:00,
2013-06-24 16:45:00,75.6,48.9,29.72,ENE,57,0.0,3.0,39,0.00,,---,0.01,VWS V14.01,2013-06-25 00:45:00,
2013-06-24 16:47:00,75.9,49.2,29.72,ENE,69,0.0,4.0,39,0.00,,---,0.01,VWS V14.01,2013-06-25 00:47:00,
2013-06-24 16:48:00,76.0,50.6,29.72,ENE,67,3.0,4.0,41,0.00,,---,0.01,VWS V14.01,2013-06-25 00:48:00,
2013-06-24 16:49:00,76.0,51.3,29.72,NNE,17,2.0,5.0,42,0.00,,---,0.01,VWS V14.01,2013-06-25 00:49:00,
2013-06-24 16:50:00,76.0,50.0,29.72,NNE,17,0.0,5.0,40,0.00,,---,0.01,VWS V14.01,2013-06-25 00:50:00,
2013-06-24 16:53:00,76.1,50.7,29.72,ENE,67,2.0,7.0,41,0.00,,---,0.01,VWS V14.01,2013-06-25 00:53:00,
2013-06-24 16:54:00,76.1,50.7,29.72,ENE,65,2.0,7.0,41,0.00,,---,0.01,VWS V14.01,2013-06-25 00:54:00,
2013-06-24 16:55:00,76.0,50.0,29.72,ENE,74,3.0,7.0,40,0.00,,---,0.01,VWS V14.01,2013-06-25 00:55:00,
2013-06-24 16:59:00,75.6,50.3,29.72,East,94,0.0,4.0,41,0.00,,---,0.01,VWS V14.01,2013-06-25 00:59:00,
2013-06-24 17:00:00,75.4,50.7,29.72,East,90,4.0,5.0,42,0.00,,---,0.01,VWS V14.01,2013-06-25 01:00:00,
2013-06-24 17:04:00,75.1,50.5,29.72,ESE,112,1.0,5.0,42,0.00,,---,0.01,VWS V14.01,2013-06-25 01:04:00,
2013-06-24 17:05:00,75.0,49.7,29.72,ESE,112,0.0,5.0,41,0.00,,---,0.01,VWS V14.01,2013-06-25 01:05:00,
2013-06-24 17:06:00,74.9,49.6,29.72,ESE,112,0.0,5.0,41,0.00,,---,0.01,VWS V14.01,2013-06-25 01:06:00,
2013-06-24 17:10:00,74.8,50.2,29.72,ESE,112,0.0,4.0,42,0.00,,---,0.01,VWS V14.01,2013-06-25 01:10:00,
2013-06-24 17:11:00,74.7,50.1,29.72,ESE,111,0.0,4.0,42,0.00,,---,0.01,VWS V14.01,2013-06-25 01:11:00,
2013-06-24 17:15:00,74.5,49.3,29.72,ESE,111,0.0,2.0,41,0.00,,---,0.01,VWS V14.01,2013-06-25 01:15:00,
2013-06-24 17:16:00,74.5,50.6,29.72,ESE,112,0.0,2.0,43,0.00,,---,0.01,VWS V14.01,2013-06-25 01:16:00,
2013-06-24 17:17:00,74.5,51.2,29.72,ESE,112,0.0,0.0,44,0.00,,---,0.01,VWS V14.01,2013-06-25 01:17:00,
2013-06-24 17:20:00,74.6,51.9,29.72,ESE,112,0.0,0.0,45,0.00,,---,0.01,VWS V14.01,2013-06-25 01:20:00,
2013-06-24 17:21:00,74.6,51.3,29.72,ESE,111,0.0,0.0,44,0.00,,---,0.01,VWS V14.01,2013-06-25 01:21:00,
2013-06-24 17:22:00,74.6,51.3,29.72,ESE,111,0.0,1.0,44,0.00,,---,0.01,VWS V14.01,2013-06-25 01:22:00,
2013-06-24 17:25:00,74.7,50.7,29.72,ESE,112,0.0,1.0,43,0.00,,---,0.01,VWS V14.01,2013-06-25 01:25:00,
2013-06-24 17:26:00,74.7,50.7,29.72,ENE,69,3.0,3.0,43,0.00,,---,0.01,VWS V14.01,2013-06-25 01:26:00,
2013-06-24 17:27:00,74.7,50.1,29.72,ENE,69,0.0,3.0,42,0.00,,---,0.01,VWS V14.01,2013-06-25 01:27:00,
2013-06-24 17:30:00,74.7,49.5,29.72,ENE,69,0.0,3.0,41,0.00,,---,0.01,VWS V14.01,2013-06-25 01:30:00,
2013-06-24 17:32:00,74.6,50.0,29.72,ENE,69,0.0,0.0,42,0.00,,---,0.01,VWS V14.01,2013-06-25 01:32:00,
2013-06-24 17:35:00,74.6,50.7,29.72,ENE,69,0.0,1.0,43,0.00,,---,0.01,VWS V14.01,2013-06-25 01:35:00,
2013-06-24 17:37:00,74.6,51.3,29.72,ENE,69,0.0,0.0,44,0.00,,---,0.01,VWS V14.01,2013-06-25 01:37:00,
2013-06-24 17:38:00,74.6,51.9,29.72,ENE,69,0.0,1.0,45,0.00,,---,0.01,VWS V14.01,2013-06-25 01:38:00,
2013-06-24 17:40:00,74.6,51.3,29.72,ENE,69,0.0,1.0,44,0.00,,---,0.01,VWS V14.01,2013-06-25 01:40:00,
2013-06-24 17:41:00,74.4,52.3,29.72,ENE,69,0.0,1.0,46,0.00,,---,0.01,VWS V14.01,2013-06-25 01:41:00,
2013-06-24 17:42:00,74.3,52.2,29.72,ENE,69,0.0,1.0,46,0.00,,---,0.01,VWS V14.01,2013-06-25 01:42:00,
2013-06-24 17:43:00,74.4,53.5,29.71,ENE,69,0.0,1.0,48,0.00,,---,0.01,VWS V14.01,2013-06-25 01:43:00,
2013-06-24 17:45:00,74.4,52.9,29.72,ENE,69,0.0,1.0,47,0.00,,---,0.01,VWS V14.01,2013-06-25 01:45:00,
2013-06-24 17:47:00,74.7,53.2,29.71,North,355,3.0,7.0,47,0.00,,---,0.01,VWS V14.01,2013-06-25 01:47:00,
2013-06-24 17:48:00,74.8,52.7,29.71,North,355,5.0,7.0,46,0.00,,---,0.01,VWS V14.01,2013-06-25 01:48:00,
2013-06-24 17:50:00,74.6,53.6,29.71,NNW,342,3.0,6.0,48,0.00,,---,0.01,VWS V14.01,2013-06-25 01:50:00,
2013-06-24 17:53:00,74.8,51.5,29.71,North,360,6.0,7.0,44,0.00,,---,0.01,VWS V14.01,2013-06-25 01:53:00,
2013-06-24 17:54:00,74.8,52.7,29.71,NW,325,9.0,11.0,46,0.00,,---,0.01,VWS V14.01,2013-06-25 01:54:00,
2013-06-24 17:55:00,74.8,51.5,29.71,North,5,2.0,9.0,44,0.00,,---,0.01,VWS V14.01,2013-06-25 01:55:00,
2013-06-24 17:58:00,74.8,52.7,29.71,NW,320,7.0,11.0,46,0.00,,---,0.01,VWS V14.01,2013-06-25 01:58:00,
2013-06-24 17:59:00,74.8,52.1,29.72,NNW,347,8.0,11.0,45,0.00,,---,0.01,VWS V14.01,2013-06-25 01:59:00,
2013-06-24 18:00:00,74.6,51.9,29.71,NNE,14,3.0,11.0,45,0.00,,---,0.01,VWS V14.01,2013-06-25 02:00:00,
2013-06-24 18:03:00,74.5,51.8,29.71,NNW,339,9.0,9.0,45,0.00,,---,0.01,VWS V14.01,2013-06-25 02:03:00,
2013-06-24 18:04:00,74.5,51.8,29.71,North,5,7.0,10.0,45,0.00,,---,0.01,VWS V14.01,2013-06-25 02:04:00,
2013-06-24 18:05:00,74.8,52.1,29.71,NNW,345,5.0,11.0,45,0.00,,---,0.01,VWS V14.01,2013-06-25 02:05:00,
2013-06-24 18:06:00,74.1,51.4,29.71,NE,36,5.0,12.0,45,0.00,,---,0.01,VWS V14.01,2013-06-25 02:06:00,
2013-06-24 18:09:00,73.6,52.2,29.71,North,351,2.0,9.0,47,0.00,,---,0.01,VWS V14.01,2013-06-25 02:09:00,
2013-06-24 18:10:00,74.1,51.4,29.71,NNE,14,5.0,12.0,45,0.00,,---,0.01,VWS V14.01,2013-06-25 02:10:00,
2013-06-24 18:11:00,73.2,53.5,29.71,North,360,2.0,9.0,50,0.00,,---,0.01,VWS V14.01,2013-06-25 02:11:00,
2013-06-24 18:14:00,72.4,54.8,29.71,North,5,7.0,9.0,54,0.00,,---,0.01,VWS V14.01,2013-06-25 02:14:00,
2013-06-24 18:15:00,72.1,55.6,29.71,North,360,6.0,9.0,56,0.00,,---,0.01,VWS V14.01,2013-06-25 02:15:00,
2013-06-24 18:17:00,71.4,53.9,29.72,North,5,5.0,12.0,54,0.00,,---,0.01,VWS V14.01,2013-06-25 02:17:00,
2013-06-24 18:20:00,70.4,53.0,29.72,North,355,7.0,13.0,54,0.00,,---,0.01,VWS V14.01,2013-06-25 02:20:00,
2013-06-24 18:22:00,69.8,54.4,29.72,North,5,13.0,13.0,58,0.00,,---,0.01,VWS V14.01,2013-06-25 02:22:00,
2013-06-24 18:25:00,70.1,53.2,29.72,North,5,10.0,13.0,55,0.00,,---,0.01,VWS V14.01,2013-06-25 02:25:00,
2013-06-24 18:26:00,68.5,56.3,29.72,NNE,14,6.0,13.0,65,0.00,,---,0.01,VWS V14.01,2013-06-25 02:26:00,
2013-06-24 18:27:00,68.0,56.2,29.72,NNW,336,6.0,6.0,66,0.01,,---,0.02,VWS V14.01,2013-06-25 02:27:00,
2013-06-24 18:30:00,68.4,56.2,29.72,NNE,20,5.0,13.0,65,0.00,,---,0.01,VWS V14.01,2013-06-25 02:30:00,
2013-06-24 18:32:00,65.6,56.0,29.73,NNW,340,3.0,8.0,71,0.02,,---,0.03,VWS V14.01,2013-06-25 02:32:00,
2013-06-24 18:33:00,65.2,56.0,29.73,NNW,336,4.0,8.0,72,0.02,,---,0.03,VWS V14.01,2013-06-25 02:33:00,
2013-06-24 18:34:00,64.8,56.0,29.73,NW,306,4.0,8.0,73,0.07,,---,0.08,VWS V14.01,2013-06-25 02:34:00,
2013-06-24 18:35:00,66.0,56.3,29.73,NNW,348,8.0,8.0,71,0.01,,---,0.02,VWS V14.01,2013-06-25 02:35:00,
2013-06-24 18:37:00,63.2,56.2,29.72,WNW,302,2.0,3.0,78,0.08,,---,0.09,VWS V14.01,2013-06-25 02:37:00,
2013-06-24 18:38:00,62.9,56.3,29.72,WNW,299,1.0,3.0,79,0.08,,---,0.09,VWS V14.01,2013-06-25 02:38:00,
2013-06-24 18:39:00,62.6,56.3,29.72,WNW,299,0.0,3.0,80,0.08,,---,0.09,VWS V14.01,2013-06-25 02:39:00,
2013-06-24 18:40:00,63.7,56.0,29.72,West,273,1.0,8.0,76,0.08,,---,0.09,VWS V14.01,2013-06-25 02:40:00,
2013-06-24 18:43:00,61.9,56.7,29.72,WNW,299,0.0,0.0,83,0.08,,---,0.09,VWS V14.01,2013-06-25 02:43:00,
2013-06-24 18:44:00,61.7,56.5,29.72,WNW,299,0.0,0.0,83,0.08,,---,0.09,VWS V14.01,2013-06-25 02:44:00,
2013-06-24 18:45:00,62.2,56.3,29.72,WNW,299,0.0,3.0,81,0.08,,---,0.09,VWS V14.01,2013-06-25 02:45:00,
2013-06-24 18:48:00,61.3,56.8,29.72,WNW,299,0.0,0.0,85,0.08,,---,0.09,VWS V14.01,2013-06-25 02:48:00,
2013-06-24 18:49:00,61.3,56.4,29.72,WNW,299,0.0,0.0,84,0.08,,---,0.09,VWS V14.01,2013-06-25 02:49:00,
2013-06-24 18:50:00,61.2,56.3,29.72,WNW,299,0.0,2.0,84,0.08,,---,0.09,VWS V14.01,2013-06-25 02:50:00,
2013-06-24 18:51:00,61.2,56.3,29.72,WNW,299,1.0,2.0,84,0.08,,---,0.09,VWS V14.01,2013-06-25 02:51:00,
2013-06-24 18:54:00,61.2,56.7,29.72,NW,326,4.0,4.0,85,0.08,,---,0.09,VWS V14.01,2013-06-25 02:54:00,
2013-06-24 18:55:00,61.2,56.3,29.72,WNW,299,0.0,2.0,84,0.08,,---,0.09,VWS V14.01,2013-06-25 02:55:00,
2013-06-24 18:56:00,61.2,57.0,29.72,NNW,329,0.0,4.0,86,0.08,,---,0.09,VWS V14.01,2013-06-25 02:56:00,
2013-06-24 18:59:00,61.1,56.9,29.73,NNW,329,0.0,0.0,86,0.08,,---,0.09,VWS V14.01,2013-06-25 02:59:00,
2013-06-24 19:00:00,61.2,57.0,29.72,NNW,329,0.0,4.0,86,0.08,,---,0.09,VWS V14.01,2013-06-25 03:00:00,
2013-06-24 19:01:00,61.1,57.2,29.73,NNW,329,0.0,1.0,87,0.08,,---,0.09,VWS V14.01,2013-06-25 03:01:00,
2013-06-24 19:04:00,61.1,56.9,29.74,NNE,32,5.0,5.0,86,0.08,,---,0.09,VWS V14.01,2013-06-25 03:04:00,
2013-06-24 19:05:00,61.1,56.9,29.74,NNE,26,7.0,8.0,86,0.08,,---,0.09,VWS V14.01,2013-06-25 03:05:00,
2013-06-24 19:06:00,61.1,56.9,29.75,NNE,14,8.0,9.0,86,0.08,,---,0.09,VWS V14.01,2013-06-25 03:06:00,
2013-06-24 19:07:00,61.2,56.0,29.75,NNE,30,3.0,9.0,83,0.08,,---,0.09,VWS V14.01,2013-06-25 03:07:00,
2013-06-24 19:09:00,61.4,55.9,29.74,East,80,0.0,9.0,82,0.08,,---,0.09,VWS V14.01,2013-06-25 03:09:00,
2013-06-24 19:10:00,61.5,55.6,29.74,East,81,7.0,9.0,81,0.08,,---,0.09,VWS V14.01,2013-06-25 03:10:00,
2013-06-24 19:11:00,61.5,54.9,29.74,North,360,6.0,9.0,79,0.08,,---,0.09,VWS V14.01,2013-06-25 03:11:00,
2013-06-24 19:13:00,61.6,55.0,29.74,NNE,12,6.0,10.0,79,0.09,,---,0.10,VWS V14.01,2013-06-25 03:13:00,
2013-06-24 19:14:00,61.6,54.7,29.74,NE,40,5.0,10.0,78,0.09,,---,0.10,VWS V14.01,2013-06-25 03:14:00,
2013-06-24 19:15:00,61.6,54.7,29.74,North,5,9.0,12.0,78,0.09,,---,0.10,VWS V14.01,2013-06-25 03:15:00,
2013-06-24 19:18:00,61.3,54.7,29.74,North,5,9.0,12.0,79,0.09,,---,0.10,VWS V14.01,2013-06-25 03:18:00,
2013-06-24 19:20:00,61.0,54.5,29.74,North,355,12.0,15.0,79,0.09,,---,0.10,VWS V14.01,2013-06-25 03:20:00,
2013-06-24 19:24:00,61.0,54.5,29.74,NNW,340,8.0,11.0,79,0.09,,---,0.10,VWS V14.01,2013-06-25 03:24:00,
2013-06-24 19:25:00,60.9,54.3,29.74,NW,323,6.0,13.0,79,0.09,,---,0.10,VWS V14.01,2013-06-25 03:25:00,
2013-06-24 19:29:00,61.0,55.1,29.73,WNW,299,4.0,7.0,81,0.09,,---,0.10,VWS V14.01,2013-06-25 03:29:00,
2013-06-24 19:30:00,60.9,54.7,29.73,NNW,328,3.0,7.0,80,0.09,,---,0.10,VWS V14.01,2013-06-25 03:30:00,
2013-06-24 19:35:00,61.0,55.5,29.74,NW,321,0.0,6.0,82,0.08,,---,0.10,VWS V14.01,2013-06-25 03:35:00,
2013-06-24 19:36:00,61.0,55.8,29.74,NW,321,0.0,6.0,83,0.08,,---,0.10,VWS V14.01,2013-06-25 03:36:00,
2013-06-24 19:40:00,60.8,56.9,29.74,WNW,300,0.0,3.0,87,0.01,,---,0.10,VWS V14.01,2013-06-25 03:40:00,
2013-06-24 19:41:00,60.8,56.9,29.74,WNW,300,0.0,3.0,87,0.01,,---,0.10,VWS V14.01,2013-06-25 03:41:00,
2013-06-24 19:45:00,60.8,56.9,29.74,WNW,298,1.0,3.0,87,0.01,,---,0.10,VWS V14.01,2013-06-25 03:45:00,
2013-06-24 19:46:00,60.4,56.8,29.74,West,263,2.0,6.0,88,0.01,,---,0.10,VWS V14.01,2013-06-25 03:46:00,
2013-06-24 19:47:00,60.4,56.8,29.74,West,281,7.0,8.0,88,0.01,,---,0.10,VWS V14.01,2013-06-25 03:47:00,
2013-06-24 19:48:00,60.3,56.7,29.74,WNW,287,6.0,8.0,88,0.01,,---,0.10,VWS V14.01,2013-06-25 03:48:00,
2013-06-24 19:50:00,60.4,56.8,29.74,West,263,2.0,6.0,88,0.01,,---,0.10,VWS V14.01,2013-06-25 03:50:00,
2013-06-24 19:51:00,60.2,57.0,29.74,NW,311,0.0,3.0,89,0.01,,---,0.10,VWS V14.01,2013-06-25 03:51:00,
2013-06-24 19:52:00,60.2,57.0,29.74,NW,311,4.0,4.0,89,0.01,,---,0.10,VWS V14.01,2013-06-25 03:52:00,
2013-06-24 19:53:00,60.2,57.0,29.74,WNW,296,4.0,7.0,89,0.01,,---,0.10,VWS V14.01,2013-06-25 03:53:00,
2013-06-24 19:55:00,60.2,57.0,29.74,NW,307,2.0,8.0,89,0.01,,---,0.10,VWS V14.01,2013-06-25 03:55:00,
2013-06-24 19:57:00,60.2,57.0,29.74,NW,312,0.0,5.0,89,0.01,,---,0.10,VWS V14.01,2013-06-25 03:57:00,
2013-06-24 19:58:00,60.2,57.3,29.74,WNW,294,4.0,6.0,90,0.01,,---,0.10,VWS V14.01,2013-06-25 03:58:00,
2013-06-24 20:00:00,60.2,57.0,29.74,WNW,292,4.0,8.0,89,0.01,,---,0.10,VWS V14.01,2013-06-25 04:00:00,
2013-06-24 20:01:00,60.3,57.0,29.74,WNW,300,6.0,6.0,89,0.01,,---,0.10,VWS V14.01,2013-06-25 04:01:00,
2013-06-24 20:05:00,60.3,57.0,29.74,WNW,300,2.0,6.0,89,0.01,,---,0.10,VWS V14.01,2013-06-25 04:05:00,
2013-06-24 20:06:00,60.5,57.6,29.74,WNW,286,0.0,6.0,90,0.01,,---,0.10,VWS V14.01,2013-06-25 04:06:00,
2013-06-24 20:10:00,60.5,57.6,29.74,WNW,288,0.0,6.0,90,0.01,,---,0.10,VWS V14.01,2013-06-25 04:10:00,
2013-06-24 20:11:00,60.7,57.4,29.74,NW,304,7.0,9.0,89,0.01,,---,0.10,VWS V14.01,2013-06-25 04:11:00,
2013-06-24 20:12:00,60.7,57.4,29.74,NW,306,5.0,8.0,89,0.01,,---,0.10,VWS V14.01,2013-06-25 04:12:00,
2013-06-24 20:15:00,60.7,57.4,29.74,WNW,296,8.0,9.0,89,0.01,,---,0.10,VWS V14.01,2013-06-25 04:15:00,
2013-06-24 20:16:00,60.9,57.3,29.74,WNW,301,2.0,12.0,88,0.01,,---,0.10,VWS V14.01,2013-06-25 04:16:00,
2013-06-24 20:17:00,60.9,57.3,29.74,WNW,297,3.0,10.0,88,0.00,,---,0.10,VWS V14.01,2013-06-25 04:17:00,
2013-06-24 20:20:00,60.9,57.3,29.74,NW,325,6.0,12.0,88,0.01,,---,0.10,VWS V14.01,2013-06-25 04:20:00,
2013-06-24 20:21:00,61.0,57.1,29.74,NW,306,9.0,12.0,87,0.00,,---,0.10,VWS V14.01,2013-06-25 04:21:00,
2013-06-24 20:22:00,61.0,57.1,29.73,West,278,9.0,10.0,87,0.00,,---,0.10,VWS V14.01,2013-06-25 04:22:00,
2013-06-24 20:25:00,61.0,57.1,29.74,NW,319,6.0,12.0,87,0.00,,---,0.10,VWS V14.01,2013-06-25 04:25:00,
2013-06-24 20:26:00,61.1,57.2,29.73,WNW,296,4.0,4.0,87,0.00,,---,0.10,VWS V14.01,2013-06-25 04:26:00,
2013-06-24 20:27:00,61.2,57.3,29.73,NW,315,1.0,6.0,87,0.00,,---,0.10,VWS V14.01,2013-06-25 04:27:00,
2013-06-24 20:28:00,61.3,57.4,29.73,NW,304,5.0,6.0,87,0.00,,---,0.10,VWS V14.01,2013-06-25 04:28:00,
2013-06-24 20:30:00,61.1,57.2,29.73,WNW,303,2.0,12.0,87,0.00,,---,0.10,VWS V14.01,2013-06-25 04:30:00,
2013-06-24 20:32:00,61.6,58.0,29.73,NW,320,8.0,10.0,88,0.00,,---,0.10,VWS V14.01,2013-06-25 04:32:00,
2013-06-24 20:33:00,61.7,57.8,29.73,West,271,6.0,10.0,87,0.00,,---,0.10,VWS V14.01,2013-06-25 04:33:00,
2013-06-24 20:35:00,61.6,58.0,29.73,WNW,301,10.0,11.0,88,0.00,,---,0.10,VWS V14.01,2013-06-25 04:35:00,
2013-06-24 20:37:00,61.9,57.7,29.73,WNW,282,5.0,10.0,86,0.00,,---,0.10,VWS V14.01,2013-06-25 04:37:00,
2013-06-24 20:38:00,61.9,57.3,29.73,WNW,286,2.0,10.0,85,0.00,,---,0.10,VWS V14.01,2013-06-25 04:38:00,
2013-06-24 20:40:00,61.8,57.6,29.73,WNW,302,9.0,11.0,86,0.00,,---,0.10,VWS V14.01,2013-06-25 04:40:00,
2013-06-24 20:42:00,62.0,58.1,29.73,NW,312,0.0,7.0,87,0.00,,---,0.10,VWS V14.01,2013-06-25 04:42:00,
2013-06-24 20:43:00,62.1,58.5,29.73,WNW,284,3.0,7.0,88,0.00,,---,0.10,VWS V14.01,2013-06-25 04:43:00,
2013-06-24 20:45:00,62.0,58.1,29.73,WNW,284,1.0,10.0,87,0.00,,---,0.10,VWS V14.01,2013-06-25 04:45:00,
2013-06-24 20:47:00,62.2,58.6,29.73,WSW,246,4.0,4.0,88,0.00,,---,0.10,VWS V14.01,2013-06-25 04:47:00,
2013-06-24 20:48:00,62.2,58.3,29.73,WNW,300,0.0,5.0,87,0.00,,---,0.10,VWS V14.01,2013-06-25 04:48:00,
2013-06-24 20:50:00,62.2,58.6,29.73,WNW,284,0.0,7.0,88,0.00,,---,0.10,VWS V14.01,2013-06-25 04:50:00,
2013-06-24 20:52:00,62.2,58.3,29.73,West,270,4.0,6.0,87,0.00,,---,0.10,VWS V14.01,2013-06-25 04:52:00,
2013-06-24 20:53:00,62.2,58.3,29.73,WNW,282,2.0,6.0,87,0.00,,---,0.10,VWS V14.01,2013-06-25 04:53:00,
2013-06-24 20:54:00,62.2,58.3,29.73,WSW,257,1.0,7.0,87,0.00,,---,0.10,VWS V14.01,2013-06-25 04:54:00,
2013-06-24 20:55:00,62.2,58.3,29.73,West,259,2.0,6.0,87,0.00,,---,0.10,VWS V14.01,2013-06-25 04:55:00,
2013-06-24 20:58:00,62.2,58.6,29.72,West,281,2.0,4.0,88,0.00,,---,0.10,VWS V14.01,2013-06-25 04:58:00,
2013-06-24 20:59:00,62.2,58.6,29.73,WNW,292,2.0,4.0,88,0.00,,---,0.10,VWS V14.01,2013-06-25 04:59:00,
2013-06-24 21:00:00,62.2,58.6,29.72,WNW,297,0.0,7.0,88,0.00,,---,0.10,VWS V14.01,2013-06-25 05:00:00,
2013-06-24 21:03:00,62.3,58.4,29.73,NW,315,0.0,2.0,87,0.00,,---,0.10,VWS V14.01,2013-06-25 05:03:00,
2013-06-24 21:04:00,62.3,58.7,29.73,WNW,298,6.0,6.0,88,0.00,,---,0.10,VWS V14.01,2013-06-25 05:04:00,
2013-06-24 21:05:00,62.2,58.3,29.72,NW,316,0.0,7.0,87,0.00,,---,0.10,VWS V14.01,2013-06-25 05:05:00,
2013-06-24 21:08:00,62.4,58.5,29.72,WNW,294,0.0,4.0,87,0.00,,---,0.10,VWS V14.01,2013-06-25 05:08:00,
2013-06-24 21:09:00,62.4,58.5,29.72,WNW,294,4.0,5.0,87,0.00,,---,0.10,VWS V14.01,2013-06-25 05:09:00,
2013-06-24 21:10:00,62.3,58.4,29.72,WNW,293,1.0,6.0,87,0.00,,---,0.10,VWS V14.01,2013-06-25 05:10:00,
2013-06-24 21:13:00,62.5,58.3,29.72,WNW,298,0.0,5.0,86,0.00,,---,0.10,VWS V14.01,2013-06-25 05:13:00,
2013-06-24 21:14:00,62.5,58.3,29.72,WNW,298,2.0,5.0,86,0.00,,---,0.10,VWS V14.01,2013-06-25 05:14:00,
2013-06-24 21:15:00,62.5,58.6,29.72,WNW,298,0.0,5.0,87,0.00,,---,0.10,VWS V14.01,2013-06-25 05:15:00,
2013-06-24 21:18:00,62.5,57.9,29.72,WNW,292,0.0,4.0,85,0.00,,---,0.10,VWS V14.01,2013-06-25 05:18:00,
2013-06-24 21:19:00,62.6,58.0,29.72,WNW,294,3.0,4.0,85,0.00,,---,0.10,VWS V14.01,2013-06-25 05:19:00,
2013-06-24 21:20:00,62.6,58.0,29.72,West,275,0.0,4.0,85,0.00,,---,0.10,VWS V14.01,2013-06-25 05:20:00,
2013-06-24 21:23:00,62.7,57.8,29.72,NW,311,0.0,7.0,84,0.00,,---,0.10,VWS V14.01,2013-06-25 05:23:00,
2013-06-24 21:24:00,62.8,57.9,29.72,NW,311,1.0,7.0,84,0.00,,---,0.10,VWS V14.01,2013-06-25 05:24:00,
2013-06-24 21:25:00,62.8,57.9,29.72,WNW,295,2.0,7.0,84,0.00,,---,0.10,VWS V14.01,2013-06-25 05:25:00,
2013-06-24 21:28:00,62.9,58.3,29.72,NW,317,5.0,5.0,85,0.00,,---,0.10,VWS V14.01,2013-06-25 05:28:00,
2013-06-24 21:29:00,62.9,58.0,29.72,WNW,298,3.0,5.0,84,0.00,,---,0.10,VWS V14.01,2013-06-25 05:29:00,
2013-06-24 21:30:00,62.9,58.0,29.72,NW,315,0.0,5.0,84,0.00,,---,0.10,VWS V14.01,2013-06-25 05:30:00,
2013-06-24 21:33:00,63.0,58.1,29.72,West,279,2.0,4.0,84,0.00,,---,0.10,VWS V14.01,2013-06-25 05:33:00,
2013-06-24 21:34:00,63.0,57.8,29.72,West,279,0.0,4.0,83,0.00,,---,0.10,VWS V14.01,2013-06-25 05:34:00,
2013-06-24 21:35:00,63.1,57.9,29.72,WNW,288,0.0,4.0,83,0.00,,---,0.10,VWS V14.01,2013-06-25 05:35:00,
2013-06-24 21:36:00,63.1,57.9,29.72,WNW,300,1.0,5.0,83,0.00,,---,0.10,VWS V14.01,2013-06-25 05:36:00,
2013-06-24 21:39:00,63.2,58.0,29.72,WNW,301,3.0,3.0,83,0.00,,---,0.10,VWS V14.01,2013-06-25 05:39:00,
2013-06-24 21:40:00,63.3,58.1,29.72,WNW,298,2.0,5.0,83,0.00,,---,0.10,VWS V14.01,2013-06-25 05:40:00,
2013-06-24 21:41:00,63.3,58.1,29.72,WNW,298,2.0,5.0,83,0.00,,---,0.10,VWS V14.01,2013-06-25 05:41:00,
2013-06-24 21:44:00,63.4,58.2,29.72,NW,306,0.0,4.0,83,0.00,,---,0.10,VWS V14.01,2013-06-25 05:44:00,
2013-06-24 21:45:00,63.4,58.2,29.72,NW,306,0.0,4.0,83,0.00,,---,0.10,VWS V14.01,2013-06-25 05:45:00,
2013-06-24 21:46:00,63.4,58.2,29.72,NW,306,0.0,4.0,83,0.00,,---,0.10,VWS V14.01,2013-06-25 05:46:00,
2013-06-24 21:49:00,63.5,58.6,29.72,WNW,294,4.0,5.0,84,0.00,,---,0.10,VWS V14.01,2013-06-25 05:49:00,
2013-06-24 21:50:00,63.5,58.2,29.72,WNW,294,1.0,5.0,83,0.00,,---,0.10,VWS V14.01,2013-06-25 05:50:00,
2013-06-24 21:51:00,63.5,58.2,29.72,WNW,294,0.0,2.0,83,0.00,,---,0.10,VWS V14.01,2013-06-25 05:51:00,
2013-06-24 21:55:00,63.5,58.6,29.72,WNW,294,2.0,5.0,84,0.00,,---,0.10,VWS V14.01,2013-06-25 05:55:00,
2013-06-24 22:00:00,63.6,58.7,29.72,WNW,302,3.0,5.0,84,0.00,,---,0.10,VWS V14.01,2013-06-25 06:00:00,
2013-06-24 22:05:00,63.6,58.0,29.72,WNW,292,2.0,5.0,82,0.00,,---,0.10,VWS V14.01,2013-06-25 06:05:00,
2013-06-24 22:10:00,63.5,57.9,29.72,NW,315,2.0,6.0,82,0.00,,---,0.10,VWS V14.01,2013-06-25 06:10:00,
2013-06-24 22:15:00,63.4,58.2,29.72,NW,315,1.0,6.0,83,0.00,,---,0.10,VWS V14.01,2013-06-25 06:15:00,
2013-06-24 22:20:00,63.2,57.3,29.73,NW,315,2.0,6.0,81,0.00,,---,0.10,VWS V14.01,2013-06-25 06:20:00,
2013-06-24 22:25:00,63.2,57.3,29.73,WNW,292,0.0,4.0,81,0.00,,---,0.10,VWS V14.01,2013-06-25 06:25:00,
2013-06-24 22:30:00,63.1,57.5,29.73,WNW,292,0.0,2.0,82,0.00,,---,0.10,VWS V14.01,2013-06-25 06:30:00,
2013-06-24 22:35:00,62.8,57.6,29.74,SE,135,1.0,5.0,83,0.00,,---,0.10,VWS V14.01,2013-06-25 06:35:00,
2013-06-24 22:40:00,62.5,56.9,29.74,SE,135,1.0,4.0,82,0.00,,---,0.10,VWS V14.01,2013-06-25 06:40:00,
2013-06-24 22:45:00,62.5,57.3,29.74,ESE,112,0.0,1.0,83,0.00,,---,0.10,VWS V14.01,2013-06-25 06:45:00,
2013-06-24 22:50:00,62.3,57.1,29.73,ESE,112,0.0,0.0,83,0.00,,---,0.10,VWS V14.01,2013-06-25 06:50:00,
2013-06-24 22:55:00,62.0,57.1,29.73,ESE,112,0.0,1.0,84,0.00,,---,0.10,VWS V14.01,2013-06-25 06:55:00,
2013-06-24 23:00:00,61.5,56.6,29.73,ESE,112,0.0,1.0,84,0.00,,---,0.10,VWS V14.01,2013-06-25 07:00:00,
2013-06-24 23:05:00,61.2,56.3,29.73,ESE,112,0.0,1.0,84,0.00,,---,0.10,VWS V14.01,2013-06-25 07:05:00,
2013-06-24 23:10:00,60.8,56.6,29.72,ESE,112,0.0,1.0,86,0.00,,---,0.10,VWS V14.01,2013-06-25 07:10:00,
2013-06-24 23:15:00,60.3,56.1,29.72,SSW,202,1.0,4.0,86,0.00,,---,0.10,VWS V14.01,2013-06-25 07:15:00,
2013-06-24 23:20:00,60.2,56.0,29.72,WNW,292,0.0,4.0,86,0.00,,---,0.10,VWS V14.01,2013-06-25 07:20:00,
2013-06-24 23:25:00,60.0,54.5,29.72,WNW,292,0.0,4.0,82,0.00,,---,0.10,VWS V14.01,2013-06-25 07:25:00,
2013-06-24 23:30:00,59.9,53.0,29.72,WNW,292,1.0,5.0,78,0.00,,---,0.10,VWS V14.01,2013-06-25 07:30:00,
2013-06-24 23:35:00,60.2,53.0,29.72,WNW,292,2.0,7.0,77,0.00,,---,0.10,VWS V14.01,2013-06-25 07:35:00,
2013-06-24 23:40:00,60.5,53.3,29.72,WNW,292,1.0,9.0,77,0.00,,---,0.10,VWS V14.01,2013-06-25 07:40:00,
2013-06-24 23:45:00,60.4,53.9,29.73,WNW,292,1.0,5.0,79,0.00,,---,0.10,VWS V14.01,2013-06-25 07:45:00,
2013-06-24 23:50:00,60.1,53.6,29.73,WNW,292,1.0,6.0,79,0.00,,---,0.10,VWS V14.01,2013-06-25 07:50:00,
2013-06-24 23:55:00,60.0,53.5,29.72,WNW,292,0.0,5.0,79,0.00,,---,0.10,VWS V14.01,2013-06-25 07:55:00,